Wetterdaten: Montag, 03.01.2022
Datum Zeit Temp. Aussen Temp. o. S. Temp +5cm Feuchte Auss Luftdruck Regen Sonnenschein Regendauer Solar Windben Empfang
03.01.2022 00:00 10,3 C 9,4 C 6,7 C 92 % 1012,1 hPa 0,0 l/m 0 min 0 min 0 W/m 29,0 km/h (5 Bft) 97,87 %
03.01.2022 00:02 10,3 C 9,4 C 6,7 C 92 % 1012,0 hPa 0,0 l/m 0 min 0 min 0 W/m 19,3 km/h (3 Bft) 97,50 %
03.01.2022 00:04 10,3 C 9,4 C 6,1 C 92 % 1012,0 hPa 0,0 l/m 0 min 0 min 0 W/m 19,3 km/h (3 Bft) 97,87 %
03.01.2022 00:08 10,2 C 9,4 C 6,1 C 92 % 1012,1 hPa 0,0 l/m 0 min 0 min 0 W/m 29,0 km/h (5 Bft) 97,87 %
03.01.2022 00:10 10,2 C 9,4 C 6,1 C 92 % 1012,1 hPa 0,0 l/m 0 min 0 min 0 W/m 25,7 km/h (4 Bft) 97,87 %
03.01.2022 00:12 10,2 C 9,4 C 6,1 C 92 % 1012,2 hPa 0,0 l/m 0 min 0 min 0 W/m 19,3 km/h (3 Bft) 95,74 %
03.01.2022 00:14 10,2 C 9,4 C 6,1 C 92 % 1012,2 hPa 0,0 l/m 0 min 0 min 0 W/m 22,5 km/h (4 Bft) 97,83 %
03.01.2022 00:16 10,2 C 9,4 C 6,1 C 92 % 1012,2 hPa 0,0 l/m 0 min 0 min 0 W/m 19,3 km/h (3 Bft) 97,87 %
03.01.2022 00:18 10,2 C 9,4 C 6,1 C 92 % 1012,2 hPa 0,0 l/m 0 min 0 min 0 W/m 19,3 km/h (3 Bft) 97,87 %
03.01.2022 00:20 10,2 C 9,4 C 6,1 C 92 % 1012,3 hPa 0,0 l/m 0 min 0 min 0 W/m 22,5 km/h (4 Bft) 97,87 %
03.01.2022 00:22 10,2 C 9,4 C 6,1 C 92 % 1012,3 hPa 0,0 l/m 0 min 0 min 0 W/m 25,7 km/h (4 Bft) 97,87 %
03.01.2022 00:24 10,2 C 9,4 C 6,1 C 92 % 1012,3 hPa 0,0 l/m 0 min 0 min 0 W/m 22,5 km/h (4 Bft) 97,87 %
03.01.2022 00:26 10,2 C 9,4 C 6,1 C 92 % 1012,3 hPa 0,0 l/m 0 min 0 min 0 W/m 29,0 km/h (5 Bft) 100,00 %
03.01.2022 00:28 10,2 C 9,4 C 6,1 C 92 % 1012,4 hPa 0,0 l/m 0 min 0 min 0 W/m 22,5 km/h (4 Bft) 100,00 %
03.01.2022 00:30 10,2 C 9,4 C 6,1 C 92 % 1012,5 hPa 0,0 l/m 0 min 0 min 0 W/m 25,7 km/h (4 Bft) 100,00 %
03.01.2022 00:32 10,2 C 9,4 C 6,1 C 92 % 1012,5 hPa 0,0 l/m 0 min 0 min 0 W/m 19,3 km/h (3 Bft) 100,00 %
03.01.2022 00:34 10,2 C 9,4 C 6,1 C 92 % 1012,4 hPa 0,0 l/m 0 min 0 min 0 W/m 22,5 km/h (4 Bft) 100,00 %
03.01.2022 00:36 10,2 C 9,4 C 6,1 C 92 % 1012,5 hPa 0,0 l/m 0 min 0 min 0 W/m 19,3 km/h (3 Bft) 100,00 %
03.01.2022 00:38 10,2 C 9,4 C 6,1 C 92 % 1012,5 hPa 0,0 l/m 0 min 0 min 0 W/m 25,7 km/h (4 Bft) 100,00 %
03.01.2022 00:40 10,2 C 9,4 C 6,1 C 92 % 1012,4 hPa 0,0 l/m 0 min 0 min 0 W/m 19,3 km/h (3 Bft) 97,87 %
03.01.2022 00:42 10,2 C 9,4 C 6,1 C 92 % 1012,6 hPa 0,0 l/m 0 min 0 min 0 W/m 22,5 km/h (4 Bft) 100,00 %
03.01.2022 00:44 10,3 C 9,4 C 6,1 C 92 % 1012,4 hPa 0,0 l/m 0 min 0 min 0 W/m 22,5 km/h (4 Bft) 97,87 %
03.01.2022 00:46 10,3 C 9,4 C 6,1 C 91 % 1012,5 hPa 0,0 l/m 0 min 0 min 0 W/m 16,1 km/h (3 Bft) 100,00 %
03.01.2022 00:48 10,3 C 9,4 C 6,1 C 91 % 1012,5 hPa 0,0 l/m 0 min 0 min 0 W/m 19,3 km/h (3 Bft) 100,00 %
03.01.2022 00:50 10,2 C 9,4 C 6,1 C 91 % 1012,5 hPa 0,0 l/m 0 min 0 min 0 W/m 19,3 km/h (3 Bft) 100,00 %
03.01.2022 00:52 10,2 C 9,4 C 6,1 C 91 % 1012,6 hPa 0,0 l/m 0 min 0 min 0 W/m 22,5 km/h (4 Bft) 100,00 %
03.01.2022 00:54 10,2 C 9,4 C 6,1 C 91 % 1012,6 hPa 0,0 l/m 0 min 0 min 0 W/m 19,3 km/h (3 Bft) 97,87 %
03.01.2022 00:56 10,2 C 9,4 C 6,1 C 91 % 1012,5 hPa 0,0 l/m 0 min 0 min 0 W/m 16,1 km/h (3 Bft) 52,17 %
03.01.2022 00:58 10,2 C 9,4 C 6,1 C 91 % 1012,5 hPa 0,0 l/m 0 min 0 min 0 W/m 16,1 km/h (3 Bft) 97,87 %
03.01.2022 01:00 10,2 C 9,4 C 6,1 C 91 % 1012,5 hPa 0,0 l/m 0 min 0 min 0 W/m 22,5 km/h (4 Bft) 97,83 %
03.01.2022 01:02 10,2 C 9,4 C 6,1 C 91 % 1012,5 hPa 0,0 l/m 0 min 0 min 0 W/m 25,7 km/h (4 Bft) 97,92 %
03.01.2022 01:04 10,2 C 9,4 C 6,1 C 91 % 1012,5 hPa 0,0 l/m 0 min 0 min 0 W/m 16,1 km/h (3 Bft) 97,83 %
03.01.2022 01:06 10,2 C 9,4 C 6,1 C 91 % 1012,5 hPa 0,0 l/m 0 min 0 min 0 W/m 19,3 km/h (3 Bft) 97,87 %
03.01.2022 01:08 10,2 C 9,4 C 6,1 C 91 % 1012,4 hPa 0,0 l/m 0 min 0 min 0 W/m 25,7 km/h (4 Bft) 97,87 %
03.01.2022 01:10 10,2 C 9,4 C 6,1 C 90 % 1012,5 hPa 0,0 l/m 0 min 0 min 0 W/m 22,5 km/h (4 Bft) 97,87 %
03.01.2022 01:12 10,2 C 9,4 C 6,1 C 90 % 1012,5 hPa 0,0 l/m 0 min 0 min 0 W/m 29,0 km/h (5 Bft) 97,87 %
03.01.2022 01:14 10,2 C 9,4 C 6,1 C 90 % 1012,6 hPa 0,0 l/m 0 min 0 min 0 W/m 29,0 km/h (5 Bft) 100,00 %
03.01.2022 01:16 10,3 C 9,4 C 6,1 C 90 % 1012,6 hPa 0,0 l/m 0 min 0 min 0 W/m 35,4 km/h (5 Bft) 97,83 %
03.01.2022 01:18 10,3 C 9,4 C 6,1 C 90 % 1012,6 hPa 0,0 l/m 0 min 0 min 0 W/m 25,7 km/h (4 Bft) 100,00 %
03.01.2022 01:20 10,3 C 9,4 C 6,1 C 90 % 1012,4 hPa 0,0 l/m 0 min 0 min 0 W/m 25,7 km/h (4 Bft) 97,87 %
03.01.2022 01:22 10,3 C 9,4 C 6,1 C 90 % 1012,6 hPa 0,0 l/m 0 min 0 min 0 W/m 19,3 km/h (3 Bft) 97,87 %
03.01.2022 01:24 10,3 C 9,4 C 6,1 C 90 % 1012,6 hPa 0,0 l/m 0 min 0 min 0 W/m 25,7 km/h (4 Bft) 97,87 %
03.01.2022 01:26 10,3 C 9,4 C 6,1 C 89 % 1012,5 hPa 0,0 l/m 0 min 0 min 0 W/m 25,7 km/h (4 Bft) 97,87 %
03.01.2022 01:28 10,3 C 9,4 C 6,1 C 89 % 1012,6 hPa 0,0 l/m 0 min 0 min 0 W/m 16,1 km/h (3 Bft) 97,83 %
03.01.2022 01:30 10,3 C 9,4 C 6,1 C 89 % 1012,6 hPa 0,0 l/m 0 min 0 min 0 W/m 32,2 km/h (5 Bft) 100,00 %
03.01.2022 01:32 10,2 C 9,4 C 6,1 C 89 % 1012,6 hPa 0,0 l/m 0 min 0 min 0 W/m 19,3 km/h (3 Bft) 100,00 %
03.01.2022 01:34 10,2 C 9,4 C 6,1 C 89 % 1012,6 hPa 0,0 l/m 0 min 0 min 0 W/m 25,7 km/h (4 Bft) 100,00 %
03.01.2022 01:36 10,2 C 9,4 C 6,1 C 89 % 1012,7 hPa 0,0 l/m 0 min 0 min 0 W/m 22,5 km/h (4 Bft) 100,00 %
03.01.2022 01:38 10,2 C 9,4 C 6,1 C 89 % 1012,7 hPa 0,0 l/m 0 min 0 min 0 W/m 16,1 km/h (3 Bft) 97,87 %
03.01.2022 01:40 10,2 C 9,4 C 6,1 C 89 % 1012,7 hPa 0,0 l/m 0 min 0 min 0 W/m 38,6 km/h (5 Bft) 97,83 %
03.01.2022 01:42 10,2 C 9,4 C 6,1 C 89 % 1012,7 hPa 0,0 l/m 0 min 0 min 0 W/m 35,4 km/h (5 Bft) 97,87 %
03.01.2022 01:44 10,2 C 9,4 C 6,1 C 89 % 1012,8 hPa 0,0 l/m 0 min 0 min 0 W/m 35,4 km/h (5 Bft) 97,87 %
03.01.2022 01:46 10,1 C 9,4 C 6,1 C 89 % 1012,7 hPa 0,0 l/m 0 min 0 min 0 W/m 35,4 km/h (5 Bft) 95,74 %
03.01.2022 01:48 10,1 C 9,4 C 6,1 C 89 % 1012,7 hPa 0,0 l/m 0 min 0 min 0 W/m 19,3 km/h (3 Bft) 97,87 %
03.01.2022 01:50 10,1 C 9,4 C 5,6 C 89 % 1012,6 hPa 0,0 l/m 0 min 0 min 0 W/m 19,3 km/h (3 Bft) 95,74 %
03.01.2022 01:52 10,1 C 9,4 C 5,6 C 89 % 1013,1 hPa 0,0 l/m 0 min 0 min 0 W/m 25,7 km/h (4 Bft) 100,00 %
03.01.2022 01:54 10,1 C 9,4 C 5,6 C 89 % 1012,8 hPa 0,0 l/m 0 min 0 min 0 W/m 12,9 km/h (3 Bft) 97,87 %
03.01.2022 01:56 10,1 C 9,4 C 5,6 C 90 % 1012,8 hPa 0,0 l/m 0 min 0 min 0 W/m 19,3 km/h (3 Bft) 97,87 %
03.01.2022 01:58 10,1 C 9,4 C 5,6 C 90 % 1012,9 hPa 0,0 l/m 0 min 0 min 0 W/m 25,7 km/h (4 Bft) 95,74 %
03.01.2022 02:00 10,1 C 9,4 C 5,6 C 89 % 1012,9 hPa 0,0 l/m 0 min 0 min 0 W/m 19,3 km/h (3 Bft) 97,87 %
03.01.2022 02:02 10,1 C 9,4 C 5,6 C 89 % 1012,9 hPa 0,0 l/m 0 min 0 min 0 W/m 16,1 km/h (3 Bft) 95,65 %
03.01.2022 02:04 10,1 C 8,9 C 6,1 C 89 % 1012,8 hPa 0,0 l/m 0 min 0 min 0 W/m 19,3 km/h (3 Bft) 97,87 %
03.01.2022 02:06 10,1 C 8,9 C 6,1 C 89 % 1012,7 hPa 0,0 l/m 0 min 0 min 0 W/m 25,7 km/h (4 Bft) 95,74 %
03.01.2022 02:08 10,0 C 8,9 C 6,1 C 89 % 1012,7 hPa 0,0 l/m 0 min 0 min 0 W/m 19,3 km/h (3 Bft) 97,87 %
03.01.2022 02:10 10,0 C 8,9 C 6,7 C 89 % 1012,8 hPa 0,0 l/m 0 min 0 min 0 W/m 25,7 km/h (4 Bft) 97,87 %
03.01.2022 02:12 10,0 C 8,9 C 6,7 C 89 % 1012,7 hPa 0,0 l/m 0 min 0 min 0 W/m 19,3 km/h (3 Bft) 95,74 %
03.01.2022 02:14 10,0 C 8,9 C 6,7 C 89 % 1012,7 hPa 0,0 l/m 0 min 0 min 0 W/m 16,1 km/h (3 Bft) 93,62 %
03.01.2022 02:16 10,0 C 8,9 C 6,7 C 89 % 1012,8 hPa 0,0 l/m 0 min 0 min 0 W/m 22,5 km/h (4 Bft) 95,65 %
03.01.2022 02:18 10,0 C 8,9 C 6,7 C 89 % 1012,8 hPa 0,0 l/m 0 min 0 min 0 W/m 19,3 km/h (3 Bft) 95,74 %
03.01.2022 02:20 10,0 C 8,9 C 6,7 C 89 % 1012,9 hPa 0,0 l/m 0 min 0 min 0 W/m 12,9 km/h (3 Bft) 95,74 %
03.01.2022 02:22 10,0 C 9,4 C 6,7 C 89 % 1012,9 hPa 0,0 l/m 0 min 0 min 0 W/m 22,5 km/h (4 Bft) 95,74 %
03.01.2022 02:24 10,0 C 9,4 C 6,7 C 89 % 1012,8 hPa 0,0 l/m 0 min 0 min 0 W/m 16,1 km/h (3 Bft) 93,62 %
03.01.2022 02:26 10,1 C 9,4 C 6,7 C 89 % 1012,8 hPa 0,0 l/m 0 min 0 min 0 W/m 25,7 km/h (4 Bft) 97,83 %
03.01.2022 02:28 10,0 C 9,4 C 6,7 C 89 % 1012,9 hPa 0,0 l/m 0 min 0 min 0 W/m 25,7 km/h (4 Bft) 93,62 %
03.01.2022 02:30 10,0 C 9,4 C 6,7 C 89 % 1012,9 hPa 0,0 l/m 0 min 0 min 0 W/m 22,5 km/h (4 Bft) 97,87 %
03.01.2022 02:32 10,1 C 9,4 C 6,7 C 89 % 1013,0 hPa 0,0 l/m 0 min 0 min 0 W/m 25,7 km/h (4 Bft) 97,87 %
03.01.2022 02:34 10,1 C 9,4 C 6,7 C 89 % 1012,9 hPa 0,0 l/m 0 min 0 min 0 W/m 29,0 km/h (5 Bft) 97,87 %
03.01.2022 02:36 10,1 C 9,4 C 6,7 C 89 % 1012,9 hPa 0,0 l/m 0 min 0 min 0 W/m 19,3 km/h (3 Bft) 97,87 %
03.01.2022 02:38 10,1 C 9,4 C 6,7 C 89 % 1013,1 hPa 0,0 l/m 0 min 0 min 0 W/m 22,5 km/h (4 Bft) 95,65 %
03.01.2022 02:40 10,1 C 9,4 C 6,7 C 89 % 1013,1 hPa 0,0 l/m 0 min 0 min 0 W/m 32,2 km/h (5 Bft) 97,87 %
03.01.2022 02:42 10,1 C 9,4 C 6,7 C 89 % 1013,1 hPa 0,0 l/m 0 min 0 min 0 W/m 19,3 km/h (3 Bft) 95,74 %
03.01.2022 02:44 10,1 C 9,4 C 6,7 C 89 % 1013,0 hPa 0,0 l/m 0 min 0 min 0 W/m 19,3 km/h (3 Bft) 95,74 %
03.01.2022 02:46 10,1 C 9,4 C 6,7 C 89 % 1013,1 hPa 0,0 l/m 0 min 0 min 0 W/m 22,5 km/h (4 Bft) 91,49 %
03.01.2022 02:48 10,1 C 9,4 C 6,7 C 89 % 1013,1 hPa 0,0 l/m 0 min 0 min 0 W/m 29,0 km/h (5 Bft) 97,87 %
03.01.2022 02:50 10,1 C 9,4 C 6,7 C 89 % 1013,2 hPa 0,0 l/m 0 min 0 min 0 W/m 19,3 km/h (3 Bft) 97,83 %
03.01.2022 02:52 10,1 C 9,4 C 6,7 C 89 % 1013,2 hPa 0,0 l/m 0 min 0 min 0 W/m 16,1 km/h (3 Bft) 97,87 %
03.01.2022 02:54 10,1 C 9,4 C 6,7 C 89 % 1013,2 hPa 0,0 l/m 0 min 0 min 0 W/m 25,7 km/h (4 Bft) 97,87 %
03.01.2022 02:56 10,1 C 9,4 C 6,7 C 89 % 1013,2 hPa 0,0 l/m 0 min 0 min 0 W/m 19,3 km/h (3 Bft) 95,74 %
03.01.2022 02:58 10,1 C 8,9 C 6,7 C 89 % 1013,1 hPa 0,0 l/m 0 min 0 min 0 W/m 19,3 km/h (3 Bft) 93,62 %
03.01.2022 03:00 10,1 C 9,4 C 6,7 C 89 % 1013,1 hPa 0,0 l/m 0 min 0 min 0 W/m 22,5 km/h (4 Bft) 97,87 %
03.01.2022 03:02 10,1 C 8,9 C 6,7 C 89 % 1013,2 hPa 0,0 l/m 0 min 0 min 0 W/m 19,3 km/h (3 Bft) 97,83 %
03.01.2022 03:04 10,0 C 8,9 C 6,7 C 89 % 1013,2 hPa 0,0 l/m 0 min 0 min 0 W/m 25,7 km/h (4 Bft) 95,74 %
03.01.2022 03:06 10,0 C 9,4 C 6,7 C 89 % 1013,2 hPa 0,0 l/m 0 min 0 min 0 W/m 22,5 km/h (4 Bft) 97,87 %
03.01.2022 03:08 10,0 C 8,9 C 6,7 C 89 % 1013,3 hPa 0,0 l/m 0 min 0 min 0 W/m 22,5 km/h (4 Bft) 97,87 %
03.01.2022 03:10 9,9 C 8,9 C 6,7 C 89 % 1013,3 hPa 0,0 l/m 0 min 0 min 0 W/m 19,3 km/h (3 Bft) 95,74 %
03.01.2022 03:12 9,9 C 8,9 C 6,7 C 89 % 1013,2 hPa 0,0 l/m 0 min 0 min 0 W/m 22,5 km/h (4 Bft) 97,87 %
03.01.2022 03:14 9,9 C 8,9 C 6,7 C 89 % 1013,3 hPa 0,0 l/m 0 min 0 min 0 W/m 19,3 km/h (3 Bft) 97,83 %
03.01.2022 03:16 9,9 C 8,9 C 6,7 C 89 % 1013,3 hPa 0,0 l/m 0 min 0 min 0 W/m 32,2 km/h (5 Bft) 97,87 %
03.01.2022 03:18 9,9 C 8,9 C 6,7 C 89 % 1013,3 hPa 0,0 l/m 0 min 0 min 0 W/m 19,3 km/h (3 Bft) 97,87 %
03.01.2022 03:20 9,9 C 8,9 C 6,7 C 89 % 1013,3 hPa 0,0 l/m 0 min 0 min 0 W/m 19,3 km/h (3 Bft) 97,87 %
03.01.2022 03:22 9,9 C 8,9 C 6,7 C 89 % 1013,3 hPa 0,0 l/m 0 min 0 min 0 W/m 25,7 km/h (4 Bft) 95,74 %
03.01.2022 03:24 9,9 C 8,9 C 6,7 C 89 % 1013,3 hPa 0,0 l/m 0 min 0 min 0 W/m 19,3 km/h (3 Bft) 97,87 %
03.01.2022 03:26 9,9 C 8,9 C 6,7 C 88 % 1013,2 hPa 0,0 l/m 0 min 0 min 0 W/m 25,7 km/h (4 Bft) 97,83 %
03.01.2022 03:28 9,9 C 8,9 C 6,7 C 88 % 1013,1 hPa 0,0 l/m 0 min 0 min 0 W/m 19,3 km/h (3 Bft) 97,87 %
03.01.2022 03:30 9,9 C 8,9 C 6,7 C 88 % 1013,2 hPa 0,0 l/m 0 min 0 min 0 W/m 22,5 km/h (4 Bft) 97,87 %
03.01.2022 03:32 9,9 C 8,9 C 6,7 C 88 % 1013,3 hPa 0,0 l/m 0 min 0 min 0 W/m 19,3 km/h (3 Bft) 100,00 %
03.01.2022 03:34 9,9 C 8,9 C 6,7 C 88 % 1013,3 hPa 0,0 l/m 0 min 0 min 0 W/m 32,2 km/h (5 Bft) 100,00 %
03.01.2022 03:36 9,9 C 8,9 C 6,7 C 88 % 1013,2 hPa 0,0 l/m 0 min 0 min 0 W/m 35,4 km/h (5 Bft) 100,00 %
03.01.2022 03:38 9,9 C 8,9 C 6,7 C 88 % 1013,2 hPa 0,0 l/m 0 min 0 min 0 W/m 19,3 km/h (3 Bft) 97,83 %
03.01.2022 03:40 9,9 C 8,9 C 6,7 C 88 % 1013,2 hPa 0,0 l/m 0 min 0 min 0 W/m 16,1 km/h (3 Bft) 100,00 %
03.01.2022 03:42 9,9 C 8,9 C 6,7 C 88 % 1013,3 hPa 0,0 l/m 0 min 0 min 0 W/m 22,5 km/h (4 Bft) 100,00 %
03.01.2022 03:44 9,9 C 8,9 C 6,7 C 88 % 1013,2 hPa 0,0 l/m 0 min 0 min 0 W/m 22,5 km/h (4 Bft) 100,00 %
03.01.2022 03:46 9,9 C 8,9 C 6,7 C 87 % 1013,1 hPa 0,0 l/m 0 min 0 min 0 W/m 22,5 km/h (4 Bft) 97,87 %
03.01.2022 03:48 9,9 C 8,9 C 6,7 C 87 % 1013,2 hPa 0,0 l/m 0 min 0 min 0 W/m 19,3 km/h (3 Bft) 100,00 %
03.01.2022 03:50 9,9 C 8,9 C 6,7 C 87 % 1013,1 hPa 0,0 l/m 0 min 0 min 0 W/m 29,0 km/h (5 Bft) 100,00 %
03.01.2022 03:52 9,9 C 8,9 C 6,7 C 88 % 1013,2 hPa 0,0 l/m 0 min 0 min 0 W/m 22,5 km/h (4 Bft) 97,87 %
03.01.2022 03:54 9,9 C 8,9 C 6,7 C 88 % 1013,2 hPa 0,0 l/m 0 min 0 min 0 W/m 19,3 km/h (3 Bft) 100,00 %
03.01.2022 03:56 9,8 C 8,9 C 6,7 C 88 % 1013,3 hPa 0,0 l/m 0 min 0 min 0 W/m 29,0 km/h (5 Bft) 100,00 %
03.01.2022 03:58 9,8 C 8,9 C 6,7 C 88 % 1013,2 hPa 0,0 l/m 0 min 0 min 0 W/m 19,3 km/h (3 Bft) 100,00 %
03.01.2022 04:00 9,8 C 8,9 C 6,7 C 88 % 1013,2 hPa 0,0 l/m 0 min 0 min 0 W/m 19,3 km/h (3 Bft) 100,00 %
03.01.2022 04:05 9,8 C 8,9 C 6,7 C 88 % 1013,2 hPa 0,0 l/m 0 min 0 min 0 W/m 22,5 km/h (4 Bft) 98,55 %
03.01.2022 04:06 9,8 C 8,9 C 6,7 C 88 % 1013,2 hPa 0,0 l/m 0 min 0 min 0 W/m 19,3 km/h (3 Bft) 95,65 %
03.01.2022 04:08 9,8 C 8,9 C 6,7 C 88 % 1013,2 hPa 0,0 l/m 0 min 0 min 0 W/m 25,7 km/h (4 Bft) 100,00 %
03.01.2022 04:10 9,8 C 8,9 C 6,1 C 88 % 1013,2 hPa 0,0 l/m 0 min 0 min 0 W/m 19,3 km/h (3 Bft) 97,87 %
03.01.2022 04:12 9,7 C 8,9 C 6,1 C 88 % 1013,2 hPa 0,0 l/m 0 min 0 min 0 W/m 19,3 km/h (3 Bft) 100,00 %
03.01.2022 04:14 9,7 C 8,9 C 6,1 C 88 % 1013,1 hPa 0,0 l/m 0 min 0 min 0 W/m 22,5 km/h (4 Bft) 97,87 %
03.01.2022 04:16 9,7 C 8,9 C 6,1 C 88 % 1013,2 hPa 0,0 l/m 0 min 0 min 0 W/m 19,3 km/h (3 Bft) 100,00 %
03.01.2022 04:18 9,7 C 8,9 C 6,1 C 88 % 1013,1 hPa 0,0 l/m 0 min 0 min 0 W/m 19,3 km/h (3 Bft) 100,00 %
03.01.2022 04:20 9,7 C 8,9 C 6,1 C 88 % 1013,1 hPa 0,0 l/m 0 min 0 min 0 W/m 22,5 km/h (4 Bft) 100,00 %
03.01.2022 04:22 9,7 C 8,9 C 6,1 C 88 % 1013,2 hPa 0,0 l/m 0 min 0 min 0 W/m 25,7 km/h (4 Bft) 100,00 %
03.01.2022 04:24 9,7 C 8,9 C 6,7 C 88 % 1013,3 hPa 0,0 l/m 0 min 0 min 0 W/m 25,7 km/h (4 Bft) 97,83 %
03.01.2022 04:26 9,7 C 8,9 C 6,1 C 88 % 1013,3 hPa 0,0 l/m 0 min 0 min 0 W/m 19,3 km/h (3 Bft) 97,87 %
03.01.2022 04:28 9,7 C 8,9 C 6,1 C 88 % 1013,3 hPa 0,0 l/m 0 min 0 min 0 W/m 22,5 km/h (4 Bft) 100,00 %
03.01.2022 04:30 9,7 C 8,9 C 6,1 C 88 % 1013,3 hPa 0,0 l/m 0 min 0 min 0 W/m 19,3 km/h (3 Bft) 97,87 %
03.01.2022 04:32 9,7 C 8,9 C 6,1 C 88 % 1013,3 hPa 0,0 l/m 0 min 0 min 0 W/m 19,3 km/h (3 Bft) 97,87 %
03.01.2022 04:34 9,7 C 8,9 C 6,1 C 88 % 1013,3 hPa 0,0 l/m 0 min 0 min 0 W/m 19,3 km/h (3 Bft) 97,87 %
03.01.2022 04:36 9,6 C 8,9 C 6,1 C 88 % 1013,3 hPa 0,0 l/m 0 min 0 min 0 W/m 16,1 km/h (3 Bft) 97,83 %
03.01.2022 04:38 9,6 C 8,3 C 6,1 C 88 % 1013,3 hPa 0,0 l/m 0 min 0 min 0 W/m 9,7 km/h (2 Bft) 97,87 %
03.01.2022 04:40 9,6 C 8,3 C 6,1 C 88 % 1013,4 hPa 0,0 l/m 0 min 0 min 0 W/m 19,3 km/h (3 Bft) 95,74 %
03.01.2022 04:42 9,6 C 8,3 C 6,1 C 89 % 1013,4 hPa 0,0 l/m 0 min 0 min 0 W/m 16,1 km/h (3 Bft) 93,62 %
03.01.2022 04:44 9,5 C 8,3 C 6,1 C 89 % 1013,3 hPa 0,0 l/m 0 min 0 min 0 W/m 19,3 km/h (3 Bft) 97,87 %
03.01.2022 04:46 9,5 C 8,3 C 6,1 C 89 % 1013,4 hPa 0,0 l/m 0 min 0 min 0 W/m 19,3 km/h (3 Bft) 97,87 %
03.01.2022 04:48 9,5 C 8,3 C 6,1 C 89 % 1013,4 hPa 0,0 l/m 0 min 0 min 0 W/m 19,3 km/h (3 Bft) 93,48 %
03.01.2022 04:50 9,5 C 8,3 C 6,1 C 89 % 1013,5 hPa 0,0 l/m 0 min 0 min 0 W/m 22,5 km/h (4 Bft) 95,74 %
03.01.2022 04:52 9,5 C 8,9 C 6,1 C 89 % 1013,3 hPa 0,0 l/m 0 min 0 min 0 W/m 19,3 km/h (3 Bft) 95,74 %
03.01.2022 04:54 9,5 C 8,3 C 6,1 C 89 % 1013,4 hPa 0,0 l/m 0 min 0 min 0 W/m 16,1 km/h (3 Bft) 95,74 %
03.01.2022 04:56 9,5 C 8,9 C 6,1 C 89 % 1013,3 hPa 0,0 l/m 0 min 0 min 0 W/m 19,3 km/h (3 Bft) 93,62 %
03.01.2022 04:58 9,6 C 8,3 C 6,1 C 89 % 1013,3 hPa 0,0 l/m 0 min 0 min 0 W/m 25,7 km/h (4 Bft) 91,49 %
03.01.2022 05:00 9,5 C 8,3 C 6,1 C 89 % 1013,3 hPa 0,0 l/m 0 min 0 min 0 W/m 25,7 km/h (4 Bft) 91,30 %
03.01.2022 05:02 9,5 C 8,3 C 6,1 C 89 % 1013,3 hPa 0,0 l/m 0 min 0 min 0 W/m 22,5 km/h (4 Bft) 93,62 %
03.01.2022 05:04 9,5 C 8,3 C 6,1 C 89 % 1013,2 hPa 0,0 l/m 0 min 0 min 0 W/m 19,3 km/h (3 Bft) 93,62 %
03.01.2022 05:06 9,4 C 8,3 C 6,1 C 89 % 1013,3 hPa 0,0 l/m 0 min 0 min 0 W/m 19,3 km/h (3 Bft) 93,62 %
03.01.2022 05:08 9,5 C 8,9 C 6,1 C 89 % 1013,2 hPa 0,0 l/m 0 min 0 min 0 W/m 22,5 km/h (4 Bft) 93,62 %
03.01.2022 05:10 9,5 C 8,3 C 6,1 C 90 % 1013,3 hPa 0,0 l/m 0 min 0 min 0 W/m 19,3 km/h (3 Bft) 93,62 %
03.01.2022 05:12 9,5 C 8,3 C 6,1 C 90 % 1013,2 hPa 0,0 l/m 0 min 0 min 0 W/m 12,9 km/h (3 Bft) 93,48 %
03.01.2022 05:14 9,4 C 8,3 C 6,1 C 90 % 1013,2 hPa 0,0 l/m 0 min 0 min 0 W/m 32,2 km/h (5 Bft) 91,49 %
03.01.2022 05:16 9,5 C 8,3 C 6,1 C 90 % 1013,4 hPa 0,0 l/m 0 min 0 min 0 W/m 16,1 km/h (3 Bft) 93,62 %
03.01.2022 05:18 9,4 C 8,3 C 6,1 C 90 % 1013,1 hPa 0,0 l/m 0 min 0 min 0 W/m 29,0 km/h (5 Bft) 91,49 %
03.01.2022 05:20 9,4 C 8,3 C 6,1 C 90 % 1013,2 hPa 0,0 l/m 0 min 0 min 0 W/m 16,1 km/h (3 Bft) 95,74 %
03.01.2022 05:22 9,4 C 8,3 C 6,1 C 90 % 1013,2 hPa 0,0 l/m 0 min 0 min 0 W/m 22,5 km/h (4 Bft) 95,74 %
03.01.2022 05:24 9,4 C 8,3 C 6,1 C 90 % 1013,2 hPa 0,0 l/m 0 min 0 min 0 W/m 29,0 km/h (5 Bft) 95,65 %
03.01.2022 05:26 9,4 C 8,3 C 6,1 C 90 % 1013,1 hPa 0,0 l/m 0 min 0 min 0 W/m 16,1 km/h (3 Bft) 93,62 %
03.01.2022 05:28 9,4 C 8,9 C 6,1 C 90 % 1013,2 hPa 0,0 l/m 0 min 0 min 0 W/m 19,3 km/h (3 Bft) 93,62 %
03.01.2022 05:30 9,4 C 8,9 C 6,1 C 90 % 1013,2 hPa 0,0 l/m 0 min 0 min 0 W/m 22,5 km/h (4 Bft) 97,87 %
03.01.2022 05:32 9,4 C 8,9 C 6,1 C 90 % 1013,2 hPa 0,0 l/m 0 min 0 min 0 W/m 16,1 km/h (3 Bft) 97,87 %
03.01.2022 05:34 9,4 C 8,3 C 6,1 C 90 % 1013,1 hPa 0,0 l/m 0 min 0 min 0 W/m 16,1 km/h (3 Bft) 97,87 %
03.01.2022 05:36 9,4 C 8,3 C 6,1 C 90 % 1013,1 hPa 0,0 l/m 0 min 0 min 0 W/m 22,5 km/h (4 Bft) 100,00 %
03.01.2022 05:38 9,4 C 8,3 C 6,1 C 90 % 1013,1 hPa 0,0 l/m 0 min 0 min 0 W/m 16,1 km/h (3 Bft) 100,00 %
03.01.2022 05:40 9,4 C 8,3 C 6,1 C 89 % 1013,2 hPa 0,0 l/m 0 min 0 min 0 W/m 19,3 km/h (3 Bft) 100,00 %
03.01.2022 05:42 9,4 C 8,3 C 6,1 C 89 % 1013,1 hPa 0,0 l/m 0 min 0 min 0 W/m 19,3 km/h (3 Bft) 97,87 %
03.01.2022 05:44 9,4 C 8,3 C 6,1 C 89 % 1013,1 hPa 0,0 l/m 0 min 0 min 0 W/m 19,3 km/h (3 Bft) 100,00 %
03.01.2022 05:46 9,4 C 8,3 C 6,1 C 89 % 1013,2 hPa 0,0 l/m 0 min 0 min 0 W/m 22,5 km/h (4 Bft) 97,87 %
03.01.2022 05:48 9,4 C 8,3 C 6,1 C 89 % 1013,1 hPa 0,0 l/m 0 min 0 min 0 W/m 12,9 km/h (3 Bft) 100,00 %
03.01.2022 05:50 9,4 C 8,3 C 6,1 C 89 % 1013,2 hPa 0,0 l/m 0 min 0 min 0 W/m 19,3 km/h (3 Bft) 97,87 %
03.01.2022 05:52 9,4 C 8,3 C 6,1 C 89 % 1013,1 hPa 0,0 l/m 0 min 0 min 0 W/m 29,0 km/h (5 Bft) 100,00 %
03.01.2022 05:54 9,4 C 8,3 C 6,1 C 89 % 1013,1 hPa 0,0 l/m 0 min 0 min 0 W/m 25,7 km/h (4 Bft) 97,87 %
03.01.2022 05:56 9,4 C 8,9 C 6,1 C 89 % 1013,1 hPa 0,0 l/m 0 min 0 min 0 W/m 22,5 km/h (4 Bft) 100,00 %
03.01.2022 05:58 9,5 C 8,9 C 6,1 C 89 % 1013,2 hPa 0,0 l/m 0 min 0 min 0 W/m 19,3 km/h (3 Bft) 100,00 %
03.01.2022 06:00 9,5 C 8,9 C 6,1 C 89 % 1013,0 hPa 0,0 l/m 0 min 0 min 0 W/m 22,5 km/h (4 Bft) 100,00 %
03.01.2022 06:02 9,5 C 8,9 C 6,1 C 89 % 1013,1 hPa 0,0 l/m 0 min 0 min 0 W/m 35,4 km/h (5 Bft) 100,00 %
03.01.2022 06:04 9,5 C 8,9 C 6,1 C 89 % 1013,0 hPa 0,0 l/m 0 min 0 min 0 W/m 22,5 km/h (4 Bft) 100,00 %
03.01.2022 06:06 9,6 C 8,9 C 6,1 C 89 % 1013,1 hPa 0,0 l/m 0 min 0 min 0 W/m 29,0 km/h (5 Bft) 100,00 %
03.01.2022 06:08 9,6 C 8,9 C 6,1 C 89 % 1013,0 hPa 0,0 l/m 0 min 0 min 0 W/m 22,5 km/h (4 Bft) 56,52 %
03.01.2022 06:10 9,6 C 8,9 C 6,1 C 89 % 1013,2 hPa 0,0 l/m 0 min 0 min 0 W/m 16,1 km/h (3 Bft) 100,00 %
03.01.2022 06:12 9,6 C 8,9 C 6,1 C 89 % 1013,0 hPa 0,0 l/m 0 min 0 min 0 W/m 19,3 km/h (3 Bft) 97,83 %
03.01.2022 06:14 9,7 C 8,9 C 6,1 C 89 % 1013,1 hPa 0,0 l/m 0 min 0 min 0 W/m 16,1 km/h (3 Bft) 100,00 %
03.01.2022 06:16 9,7 C 8,9 C 6,7 C 89 % 1013,0 hPa 0,0 l/m 0 min 0 min 0 W/m 25,7 km/h (4 Bft) 100,00 %
03.01.2022 06:18 9,7 C 8,9 C 6,7 C 89 % 1013,0 hPa 0,0 l/m 0 min 0 min 0 W/m 16,1 km/h (3 Bft) 100,00 %
03.01.2022 06:20 9,7 C 8,9 C 6,1 C 88 % 1013,1 hPa 0,0 l/m 0 min 0 min 0 W/m 19,3 km/h (3 Bft) 97,87 %
03.01.2022 06:22 9,7 C 8,9 C 6,1 C 88 % 1013,0 hPa 0,0 l/m 0 min 0 min 0 W/m 22,5 km/h (4 Bft) 100,00 %
03.01.2022 06:24 9,7 C 8,9 C 6,7 C 88 % 1012,9 hPa 0,0 l/m 0 min 0 min 0 W/m 25,7 km/h (4 Bft) 100,00 %
03.01.2022 06:26 9,7 C 8,9 C 6,7 C 88 % 1013,1 hPa 0,0 l/m 0 min 0 min 0 W/m 35,4 km/h (5 Bft) 100,00 %
03.01.2022 06:28 9,7 C 8,9 C 6,7 C 88 % 1013,0 hPa 0,0 l/m 0 min 0 min 0 W/m 19,3 km/h (3 Bft) 100,00 %
03.01.2022 06:30 9,7 C 8,9 C 6,7 C 88 % 1013,0 hPa 0,0 l/m 0 min 0 min 0 W/m 22,5 km/h (4 Bft) 100,00 %
03.01.2022 06:32 9,7 C 8,9 C 6,7 C 88 % 1012,9 hPa 0,0 l/m 0 min 0 min 0 W/m 19,3 km/h (3 Bft) 100,00 %
03.01.2022 06:34 9,7 C 8,9 C 6,1 C 88 % 1013,0 hPa 0,0 l/m 0 min 0 min 0 W/m 12,9 km/h (3 Bft) 100,00 %
03.01.2022 06:36 9,7 C 8,9 C 6,1 C 88 % 1012,9 hPa 0,0 l/m 0 min 0 min 0 W/m 16,1 km/h (3 Bft) 100,00 %
03.01.2022 06:38 9,7 C 8,9 C 6,7 C 88 % 1012,9 hPa 0,0 l/m 0 min 0 min 0 W/m 22,5 km/h (4 Bft) 100,00 %
03.01.2022 06:40 9,8 C 8,9 C 6,7 C 88 % 1012,9 hPa 0,0 l/m 0 min 0 min 0 W/m 19,3 km/h (3 Bft) 100,00 %
03.01.2022 06:42 9,8 C 8,9 C 6,7 C 88 % 1012,9 hPa 0,0 l/m 0 min 0 min 0 W/m 22,5 km/h (4 Bft) 97,87 %
03.01.2022 06:44 9,8 C 8,9 C 6,7 C 88 % 1013,0 hPa 0,0 l/m 0 min 0 min 0 W/m 22,5 km/h (4 Bft) 100,00 %
03.01.2022 06:46 9,8 C 8,9 C 6,7 C 88 % 1012,9 hPa 0,0 l/m 0 min 0 min 0 W/m 25,7 km/h (4 Bft) 100,00 %
03.01.2022 06:48 9,7 C 8,9 C 6,1 C 88 % 1012,8 hPa 0,0 l/m 0 min 0 min 0 W/m 19,3 km/h (3 Bft) 100,00 %
03.01.2022 06:50 9,7 C 8,9 C 6,7 C 88 % 1013,0 hPa 0,0 l/m 0 min 0 min 0 W/m 29,0 km/h (5 Bft) 100,00 %
03.01.2022 06:52 9,7 C 8,9 C 6,1 C 88 % 1012,9 hPa 0,0 l/m 0 min 0 min 0 W/m 9,7 km/h (2 Bft) 97,87 %
03.01.2022 06:54 9,7 C 8,9 C 6,1 C 88 % 1012,8 hPa 0,0 l/m 0 min 0 min 0 W/m 19,3 km/h (3 Bft) 100,00 %
03.01.2022 06:56 9,7 C 8,9 C 6,1 C 88 % 1012,9 hPa 0,0 l/m 0 min 0 min 0 W/m 38,6 km/h (5 Bft) 97,87 %
03.01.2022 06:58 9,7 C 8,9 C 6,1 C 88 % 1012,8 hPa 0,0 l/m 0 min 0 min 0 W/m 19,3 km/h (3 Bft) 95,74 %
03.01.2022 07:00 9,7 C 8,9 C 6,7 C 88 % 1012,8 hPa 0,0 l/m 0 min 0 min 0 W/m 25,7 km/h (4 Bft) 97,83 %
03.01.2022 07:02 9,7 C 8,9 C 6,7 C 88 % 1012,7 hPa 0,0 l/m 0 min 0 min 0 W/m 19,3 km/h (3 Bft) 97,87 %
03.01.2022 07:04 9,8 C 8,9 C 6,7 C 88 % 1012,8 hPa 0,0 l/m 0 min 0 min 0 W/m 22,5 km/h (4 Bft) 97,87 %
03.01.2022 07:06 9,8 C 8,9 C 6,7 C 88 % 1012,7 hPa 0,0 l/m 0 min 0 min 0 W/m 22,5 km/h (4 Bft) 97,87 %
03.01.2022 07:08 9,8 C 8,9 C 6,7 C 88 % 1012,7 hPa 0,0 l/m 0 min 0 min 0 W/m 35,4 km/h (5 Bft) 95,74 %
03.01.2022 07:10 9,8 C 8,9 C 6,7 C 88 % 1012,6 hPa 0,0 l/m 0 min 0 min 0 W/m 12,9 km/h (3 Bft) 95,65 %
03.01.2022 07:12 9,7 C 8,9 C 6,7 C 88 % 1012,7 hPa 0,0 l/m 0 min 0 min 0 W/m 29,0 km/h (5 Bft) 97,62 %
03.01.2022 07:14 9,7 C 8,9 C 6,1 C 89 % 1012,6 hPa 0,0 l/m 0 min 0 min 0 W/m 19,3 km/h (3 Bft) 98,08 %
03.01.2022 07:16 9,7 C 8,9 C 6,7 C 89 % 1012,5 hPa 0,0 l/m 0 min 0 min 0 W/m 22,5 km/h (4 Bft) 95,74 %
03.01.2022 07:18 9,8 C 8,9 C 6,7 C 89 % 1012,5 hPa 0,0 l/m 0 min 0 min 0 W/m 25,7 km/h (4 Bft) 97,73 %
03.01.2022 07:20 9,8 C 8,9 C 6,7 C 89 % 1012,5 hPa 0,0 l/m 0 min 0 min 0 W/m 19,3 km/h (3 Bft) 97,83 %
03.01.2022 07:22 9,8 C 8,9 C 6,7 C 89 % 1012,5 hPa 0,0 l/m 0 min 0 min 0 W/m 25,7 km/h (4 Bft) 94,00 %
03.01.2022 07:24 9,8 C 8,9 C 6,7 C 89 % 1012,4 hPa 0,0 l/m 0 min 0 min 0 W/m 35,4 km/h (5 Bft) 93,62 %
03.01.2022 07:26 9,8 C 8,9 C 6,7 C 89 % 1012,4 hPa 0,0 l/m 0 min 0 min 0 W/m 19,3 km/h (3 Bft) 93,62 %
03.01.2022 07:28 9,8 C 8,9 C 6,7 C 89 % 1012,4 hPa 0,0 l/m 0 min 0 min 0 W/m 25,7 km/h (4 Bft) 89,36 %
03.01.2022 07:30 9,8 C 8,9 C 6,7 C 89 % 1012,4 hPa 0,0 l/m 0 min 0 min 0 W/m 22,5 km/h (4 Bft) 95,74 %
03.01.2022 07:32 9,8 C 8,9 C 6,7 C 89 % 1012,4 hPa 0,0 l/m 0 min 0 min 0 W/m 22,5 km/h (4 Bft) 95,65 %
03.01.2022 07:36 9,9 C 9,4 C 6,7 C 89 % 1012,4 hPa 0,0 l/m 0 min 0 min 0 W/m 29,0 km/h (5 Bft) 95,00 %
03.01.2022 07:38 9,9 C 9,4 C 6,7 C 88 % 1012,5 hPa 0,0 l/m 0 min 0 min 0 W/m 12,9 km/h (3 Bft) 95,74 %
03.01.2022 07:40 9,9 C 9,4 C 6,7 C 88 % 1012,5 hPa 0,0 l/m 0 min 0 min 0 W/m 22,5 km/h (4 Bft) 95,74 %
03.01.2022 07:42 9,9 C 9,4 C 6,7 C 89 % 1012,5 hPa 0,0 l/m 0 min 0 min 0 W/m 16,1 km/h (3 Bft) 95,65 %
03.01.2022 07:44 9,9 C 9,4 C 6,7 C 88 % 1012,5 hPa 0,0 l/m 0 min 0 min 0 W/m 22,5 km/h (4 Bft) 95,74 %
03.01.2022 07:46 9,9 C 9,4 C 6,7 C 88 % 1012,4 hPa 0,0 l/m 0 min 0 min 0 W/m 16,1 km/h (3 Bft) 95,74 %
03.01.2022 07:48 9,9 C 9,4 C 6,7 C 88 % 1012,4 hPa 0,0 l/m 0 min 0 min 0 W/m 22,5 km/h (4 Bft) 95,74 %
03.01.2022 07:50 9,9 C 9,4 C 6,7 C 88 % 1012,4 hPa 0,0 l/m 0 min 0 min 0 W/m 29,0 km/h (5 Bft) 95,74 %
03.01.2022 07:52 9,9 C 8,9 C 6,7 C 88 % 1012,3 hPa 0,0 l/m 0 min 0 min 0 W/m 12,9 km/h (3 Bft) 93,48 %
03.01.2022 07:54 9,9 C 8,9 C 6,7 C 88 % 1012,5 hPa 0,0 l/m 0 min 0 min 0 W/m 19,3 km/h (3 Bft) 95,74 %
03.01.2022 07:56 9,9 C 8,9 C 6,1 C 88 % 1012,3 hPa 0,0 l/m 0 min 0 min 0 W/m 12,9 km/h (3 Bft) 91,49 %
03.01.2022 07:58 9,8 C 8,9 C 6,1 C 88 % 1012,5 hPa 0,0 l/m 0 min 0 min 0 W/m 19,3 km/h (3 Bft) 95,74 %
03.01.2022 08:00 9,8 C 8,9 C 6,1 C 88 % 1012,4 hPa 0,0 l/m 0 min 0 min 0 W/m 29,0 km/h (5 Bft) 93,62 %
03.01.2022 08:02 9,8 C 8,9 C 6,1 C 88 % 1012,5 hPa 0,0 l/m 0 min 0 min 0 W/m 19,3 km/h (3 Bft) 93,62 %
03.01.2022 08:04 9,8 C 8,9 C 6,1 C 88 % 1012,4 hPa 0,0 l/m 0 min 0 min 0 W/m 19,3 km/h (3 Bft) 95,74 %
03.01.2022 08:06 9,7 C 8,9 C 6,1 C 88 % 1012,4 hPa 0,0 l/m 0 min 0 min 0 W/m 35,4 km/h (5 Bft) 95,65 %
03.01.2022 08:08 9,7 C 8,9 C 6,1 C 88 % 1012,4 hPa 0,0 l/m 0 min 0 min 0 W/m 16,1 km/h (3 Bft) 95,74 %
03.01.2022 08:10 9,7 C 8,9 C 6,1 C 88 % 1012,5 hPa 0,0 l/m 0 min 0 min 0 W/m 29,0 km/h (5 Bft) 100,00 %
03.01.2022 08:12 9,6 C 8,9 C 6,1 C 88 % 1012,4 hPa 0,0 l/m 0 min 0 min 0 W/m 12,9 km/h (3 Bft) 100,00 %
03.01.2022 08:14 9,6 C 8,9 C 6,1 C 88 % 1012,4 hPa 0,0 l/m 0 min 0 min 0 W/m 19,3 km/h (3 Bft) 100,00 %
03.01.2022 08:16 9,6 C 8,9 C 6,1 C 88 % 1012,4 hPa 0,0 l/m 0 min 0 min 0 W/m 22,5 km/h (4 Bft) 97,83 %
03.01.2022 08:18 9,6 C 8,9 C 6,1 C 89 % 1012,3 hPa 0,0 l/m 0 min 0 min 0 W/m 19,3 km/h (3 Bft) 97,87 %
03.01.2022 08:20 9,6 C 8,9 C 6,1 C 89 % 1012,3 hPa 0,0 l/m 0 min 0 min 0 W/m 19,3 km/h (3 Bft) 100,00 %
03.01.2022 08:22 9,6 C 8,9 C 6,1 C 89 % 1012,3 hPa 0,0 l/m 0 min 0 min 0 W/m 19,3 km/h (3 Bft) 100,00 %
03.01.2022 08:24 9,6 C 8,9 C 6,1 C 89 % 1012,3 hPa 0,0 l/m 0 min 0 min 0 W/m 19,3 km/h (3 Bft) 100,00 %
03.01.2022 08:26 9,6 C 8,9 C 6,1 C 89 % 1012,3 hPa 0,0 l/m 0 min 0 min 0 W/m 25,7 km/h (4 Bft) 97,87 %
03.01.2022 08:28 9,6 C 8,9 C 6,1 C 89 % 1012,4 hPa 0,0 l/m 0 min 0 min 0 W/m 29,0 km/h (5 Bft) 100,00 %
03.01.2022 08:30 9,6 C 8,9 C 6,1 C 89 % 1012,4 hPa 0,0 l/m 0 min 0 min 0 W/m 16,1 km/h (3 Bft) 100,00 %
03.01.2022 08:32 9,6 C 8,9 C 6,1 C 89 % 1012,4 hPa 0,0 l/m 0 min 2 min 0 W/m 19,3 km/h (3 Bft) 100,00 %
03.01.2022 08:34 9,6 C 8,9 C 6,1 C 89 % 1012,4 hPa 0,0 l/m 0 min 2 min 0 W/m 19,3 km/h (3 Bft) 97,87 %
03.01.2022 08:36 9,6 C 8,9 C 6,1 C 89 % 1012,5 hPa 0,0 l/m 0 min 2 min 0 W/m 25,7 km/h (4 Bft) 100,00 %
03.01.2022 08:38 9,6 C 8,9 C 6,1 C 89 % 1012,5 hPa 0,0 l/m 0 min 2 min 0 W/m 19,3 km/h (3 Bft) 100,00 %
03.01.2022 08:40 9,6 C 8,9 C 6,1 C 89 % 1012,5 hPa 0,0 l/m 0 min 2 min 0 W/m 22,5 km/h (4 Bft) 100,00 %
03.01.2022 08:42 9,6 C 8,9 C 6,1 C 89 % 1012,5 hPa 0,0 l/m 0 min 0 min 0 W/m 25,7 km/h (4 Bft) 97,87 %
03.01.2022 08:44 9,6 C 8,9 C 6,1 C 89 % 1012,4 hPa 0,0 l/m 0 min 0 min 5 W/m 22,5 km/h (4 Bft) 97,87 %
03.01.2022 08:46 9,6 C 8,3 C 6,1 C 89 % 1012,4 hPa 0,0 l/m 0 min 0 min 5 W/m 22,5 km/h (4 Bft) 93,62 %
03.01.2022 08:48 9,6 C 8,3 C 6,1 C 89 % 1012,6 hPa 0,0 l/m 0 min 0 min 5 W/m 22,5 km/h (4 Bft) 97,87 %
03.01.2022 08:50 9,6 C 8,3 C 6,1 C 90 % 1012,5 hPa 0,0 l/m 0 min 0 min 7 W/m 12,9 km/h (3 Bft) 100,00 %
03.01.2022 08:52 9,5 C 8,3 C 6,1 C 90 % 1012,5 hPa 0,0 l/m 0 min 0 min 8 W/m 22,5 km/h (4 Bft) 100,00 %
03.01.2022 08:54 9,5 C 8,3 C 6,1 C 90 % 1012,5 hPa 0,0 l/m 0 min 0 min 9 W/m 16,1 km/h (3 Bft) 97,87 %
03.01.2022 08:56 9,5 C 8,9 C 6,1 C 90 % 1012,5 hPa 0,0 l/m 0 min 0 min 9 W/m 22,5 km/h (4 Bft) 100,00 %
03.01.2022 08:58 9,5 C 8,9 C 6,1 C 90 % 1012,4 hPa 0,0 l/m 0 min 0 min 11 W/m 32,2 km/h (5 Bft) 97,87 %
03.01.2022 09:00 9,5 C 8,9 C 6,1 C 90 % 1012,5 hPa 0,0 l/m 0 min 0 min 11 W/m 19,3 km/h (3 Bft) 95,74 %
03.01.2022 09:02 9,5 C 8,9 C 6,1 C 90 % 1012,5 hPa 0,0 l/m 0 min 0 min 11 W/m 16,1 km/h (3 Bft) 97,87 %
03.01.2022 09:04 9,5 C 8,9 C 6,1 C 90 % 1012,5 hPa 0,0 l/m 0 min 0 min 11 W/m 19,3 km/h (3 Bft) 97,83 %
03.01.2022 09:06 9,5 C 8,9 C 6,1 C 90 % 1012,5 hPa 0,0 l/m 0 min 0 min 11 W/m 25,7 km/h (4 Bft) 97,87 %
03.01.2022 09:08 9,5 C 8,9 C 6,1 C 90 % 1012,6 hPa 0,0 l/m 0 min 0 min 12 W/m 22,5 km/h (4 Bft) 97,87 %
03.01.2022 09:10 9,5 C 8,9 C 6,1 C 90 % 1012,6 hPa 0,0 l/m 0 min 0 min 13 W/m 29,0 km/h (5 Bft) 97,87 %
03.01.2022 09:12 9,6 C 8,9 C 6,1 C 90 % 1012,7 hPa 0,0 l/m 0 min 0 min 16 W/m 29,0 km/h (5 Bft) 97,87 %
03.01.2022 09:14 9,6 C 8,9 C 6,1 C 90 % 1012,6 hPa 0,0 l/m 0 min 0 min 24 W/m 19,3 km/h (3 Bft) 95,74 %
03.01.2022 09:16 9,6 C 8,9 C 6,1 C 90 % 1012,6 hPa 0,0 l/m 0 min 2 min 28 W/m 25,7 km/h (4 Bft) 95,65 %
03.01.2022 09:18 9,6 C 8,9 C 6,1 C 90 % 1012,6 hPa 0,0 l/m 0 min 2 min 23 W/m 29,0 km/h (5 Bft) 93,62 %
03.01.2022 09:20 9,6 C 8,9 C 6,1 C 90 % 1012,6 hPa 0,0 l/m 0 min 2 min 21 W/m 32,2 km/h (5 Bft) 97,87 %
03.01.2022 09:22 9,7 C 8,9 C 6,1 C 90 % 1012,6 hPa 0,0 l/m 0 min 2 min 25 W/m 22,5 km/h (4 Bft) 95,74 %
03.01.2022 09:24 9,7 C 8,9 C 5,6 C 91 % 1012,6 hPa 0,0 l/m 0 min 2 min 26 W/m 22,5 km/h (4 Bft) 97,87 %
03.01.2022 09:26 9,7 C 8,9 C 5,6 C 91 % 1012,8 hPa 0,0 l/m 0 min 2 min 22 W/m 16,1 km/h (3 Bft) 97,87 %
03.01.2022 09:28 9,7 C 8,9 C 5,6 C 91 % 1012,6 hPa 0,0 l/m 0 min 0 min 28 W/m 25,7 km/h (4 Bft) 97,83 %
03.01.2022 09:30 9,7 C 8,9 C 6,1 C 91 % 1012,6 hPa 0,0 l/m 0 min 0 min 39 W/m 25,7 km/h (4 Bft) 100,00 %
03.01.2022 09:32 9,7 C 8,9 C 6,1 C 91 % 1012,6 hPa 0,0 l/m 0 min 0 min 44 W/m 19,3 km/h (3 Bft) 97,87 %
03.01.2022 09:34 9,7 C 8,9 C 6,1 C 91 % 1012,6 hPa 0,0 l/m 0 min 0 min 45 W/m 16,1 km/h (3 Bft) 97,87 %
03.01.2022 09:36 9,7 C 8,9 C 6,1 C 91 % 1012,5 hPa 0,0 l/m 0 min 0 min 46 W/m 16,1 km/h (3 Bft) 85,11 %
03.01.2022 09:38 9,7 C 9,4 C 6,1 C 91 % 1012,5 hPa 0,0 l/m 0 min 0 min 48 W/m 35,4 km/h (5 Bft) 69,77 %
03.01.2022 09:40 9,7 C 9,4 C 6,1 C 91 % 1012,6 hPa 0,0 l/m 0 min 0 min 52 W/m 19,3 km/h (3 Bft) 100,00 %
03.01.2022 09:42 9,8 C 9,4 C 6,7 C 91 % 1012,6 hPa 0,0 l/m 0 min 0 min 53 W/m 25,7 km/h (4 Bft) 97,87 %
03.01.2022 09:44 9,8 C 9,4 C 6,7 C 91 % 1012,5 hPa 0,0 l/m 0 min 2 min 53 W/m 25,7 km/h (4 Bft) 100,00 %
03.01.2022 09:46 9,8 C 9,4 C 6,7 C 91 % 1012,6 hPa 0,0 l/m 0 min 0 min 51 W/m 16,1 km/h (3 Bft) 100,00 %
03.01.2022 09:48 9,9 C 9,4 C 6,7 C 90 % 1012,5 hPa 0,0 l/m 0 min 0 min 53 W/m 22,5 km/h (4 Bft) 100,00 %
03.01.2022 09:50 9,9 C 9,4 C 6,7 C 90 % 1012,4 hPa 0,0 l/m 0 min 0 min 58 W/m 16,1 km/h (3 Bft) 100,00 %
03.01.2022 09:52 9,9 C 9,4 C 6,7 C 90 % 1012,5 hPa 0,0 l/m 0 min 0 min 66 W/m 35,4 km/h (5 Bft) 97,83 %
03.01.2022 09:54 9,9 C 9,4 C 6,7 C 90 % 1012,5 hPa 0,0 l/m 0 min 0 min 63 W/m 25,7 km/h (4 Bft) 100,00 %
03.01.2022 09:56 9,9 C 9,4 C 6,7 C 90 % 1012,5 hPa 0,0 l/m 0 min 0 min 56 W/m 19,3 km/h (3 Bft) 100,00 %
03.01.2022 09:58 9,9 C 9,4 C 6,7 C 90 % 1012,6 hPa 0,0 l/m 0 min 0 min 53 W/m 19,3 km/h (3 Bft) 97,87 %
03.01.2022 10:00 9,9 C 9,4 C 6,7 C 90 % 1012,6 hPa 0,0 l/m 0 min 0 min 56 W/m 29,0 km/h (5 Bft) 97,87 %
03.01.2022 10:02 10,0 C 9,4 C 6,7 C 90 % 1012,6 hPa 0,0 l/m 0 min 0 min 69 W/m 19,3 km/h (3 Bft) 97,87 %
03.01.2022 10:04 10,0 C 9,4 C 6,7 C 90 % 1012,6 hPa 0,0 l/m 0 min 0 min 74 W/m 25,7 km/h (4 Bft) 97,83 %
03.01.2022 10:06 10,1 C 9,4 C 6,7 C 90 % 1012,5 hPa 0,0 l/m 0 min 0 min 68 W/m 25,7 km/h (4 Bft) 95,74 %
03.01.2022 10:08 10,1 C 9,4 C 6,7 C 90 % 1012,6 hPa 0,0 l/m 0 min 0 min 63 W/m 12,9 km/h (3 Bft) 97,87 %
03.01.2022 10:10 10,1 C 9,4 C 6,7 C 90 % 1012,5 hPa 0,0 l/m 0 min 0 min 62 W/m 19,3 km/h (3 Bft) 95,74 %
03.01.2022 10:12 10,1 C 10,0 C 6,7 C 89 % 1012,6 hPa 0,0 l/m 0 min 0 min 70 W/m 25,7 km/h (4 Bft) 97,87 %
03.01.2022 10:14 10,1 C 10,0 C 7,2 C 89 % 1012,5 hPa 0,0 l/m 0 min 0 min 86 W/m 16,1 km/h (3 Bft) 95,74 %
03.01.2022 10:16 10,1 C 10,0 C 7,2 C 89 % 1012,4 hPa 0,0 l/m 0 min 0 min 94 W/m 29,0 km/h (5 Bft) 93,48 %
03.01.2022 10:18 10,2 C 10,0 C 7,2 C 89 % 1012,4 hPa 0,0 l/m 0 min 0 min 79 W/m 35,4 km/h (5 Bft) 95,74 %
03.01.2022 10:20 10,2 C 10,0 C 7,2 C 89 % 1012,5 hPa 0,0 l/m 0 min 0 min 84 W/m 16,1 km/h (3 Bft) 95,74 %
03.01.2022 10:22 10,2 C 10,0 C 7,2 C 89 % 1012,4 hPa 0,0 l/m 2 min 0 min 108 W/m 25,7 km/h (4 Bft) 95,74 %
03.01.2022 10:24 10,2 C 10,0 C 7,2 C 88 % 1012,5 hPa 0,0 l/m 2 min 0 min 112 W/m 16,1 km/h (3 Bft) 95,74 %
03.01.2022 10:26 10,2 C 10,0 C 7,2 C 88 % 1012,5 hPa 0,0 l/m 2 min 0 min 106 W/m 29,0 km/h (5 Bft) 93,62 %
03.01.2022 10:28 10,2 C 10,0 C 7,2 C 88 % 1012,5 hPa 0,0 l/m 2 min 0 min 136 W/m 22,5 km/h (4 Bft) 93,48 %
03.01.2022 10:30 10,3 C 10,0 C 7,2 C 88 % 1012,5 hPa 0,0 l/m 2 min 0 min 133 W/m 35,4 km/h (5 Bft) 93,62 %
03.01.2022 10:32 10,3 C 10,0 C 7,2 C 88 % 1012,5 hPa 0,0 l/m 0 min 0 min 86 W/m 22,5 km/h (4 Bft) 95,74 %
03.01.2022 10:34 10,3 C 10,0 C 7,2 C 88 % 1012,7 hPa 0,0 l/m 0 min 0 min 91 W/m 25,7 km/h (4 Bft) 95,74 %
03.01.2022 10:36 10,3 C 10,0 C 7,2 C 88 % 1012,6 hPa 0,0 l/m 0 min 0 min 90 W/m 16,1 km/h (3 Bft) 95,74 %
03.01.2022 10:38 10,3 C 10,0 C 7,2 C 88 % 1012,6 hPa 0,0 l/m 0 min 0 min 93 W/m 22,5 km/h (4 Bft) 95,65 %
03.01.2022 10:40 10,4 C 10,0 C 7,2 C 88 % 1012,7 hPa 0,0 l/m 0 min 0 min 89 W/m 19,3 km/h (3 Bft) 95,74 %
03.01.2022 10:42 10,4 C 10,0 C 7,2 C 88 % 1012,6 hPa 0,0 l/m 0 min 0 min 86 W/m 16,1 km/h (3 Bft) 91,49 %
03.01.2022 10:44 10,4 C 10,0 C 7,2 C 87 % 1012,6 hPa 0,0 l/m 0 min 0 min 75 W/m 16,1 km/h (3 Bft) 91,49 %
03.01.2022 10:46 10,4 C 10,0 C 7,2 C 87 % 1012,6 hPa 0,0 l/m 0 min 0 min 73 W/m 19,3 km/h (3 Bft) 93,62 %
03.01.2022 10:48 10,5 C 10,0 C 7,2 C 87 % 1012,5 hPa 0,0 l/m 0 min 0 min 72 W/m 16,1 km/h (3 Bft) 95,74 %
03.01.2022 10:50 10,5 C 10,0 C 7,2 C 87 % 1012,6 hPa 0,0 l/m 0 min 0 min 79 W/m 16,1 km/h (3 Bft) 97,87 %
03.01.2022 10:52 10,5 C 10,0 C 7,2 C 87 % 1012,5 hPa 0,0 l/m 0 min 0 min 85 W/m 19,3 km/h (3 Bft) 97,83 %
03.01.2022 10:54 10,5 C 10,0 C 7,2 C 87 % 1012,5 hPa 0,0 l/m 0 min 0 min 77 W/m 32,2 km/h (5 Bft) 97,87 %
03.01.2022 10:56 10,6 C 10,6 C 7,2 C 87 % 1012,5 hPa 0,0 l/m 0 min 0 min 111 W/m 19,3 km/h (3 Bft) 95,74 %
03.01.2022 10:58 10,6 C 10,6 C 7,2 C 86 % 1012,6 hPa 0,0 l/m 2 min 0 min 209 W/m 19,3 km/h (3 Bft) 95,74 %
03.01.2022 11:00 10,6 C 10,6 C 7,2 C 86 % 1012,5 hPa 0,0 l/m 0 min 0 min 111 W/m 19,3 km/h (3 Bft) 95,74 %
03.01.2022 11:02 10,6 C 10,6 C 7,2 C 86 % 1012,5 hPa 0,0 l/m 0 min 0 min 80 W/m 25,7 km/h (4 Bft) 97,83 %
03.01.2022 11:04 10,6 C 10,0 C 7,2 C 86 % 1012,6 hPa 0,0 l/m 0 min 0 min 73 W/m 16,1 km/h (3 Bft) 97,87 %
03.01.2022 11:06 10,6 C 10,0 C 7,2 C 86 % 1012,4 hPa 0,0 l/m 0 min 0 min 74 W/m 22,5 km/h (4 Bft) 97,87 %
03.01.2022 11:08 10,6 C 10,0 C 7,2 C 86 % 1012,4 hPa 0,0 l/m 0 min 0 min 79 W/m 25,7 km/h (4 Bft) 93,62 %
03.01.2022 11:10 10,6 C 10,0 C 7,2 C 86 % 1012,4 hPa 0,0 l/m 0 min 0 min 89 W/m 16,1 km/h (3 Bft) 97,87 %
03.01.2022 11:12 10,6 C 10,0 C 7,2 C 86 % 1012,4 hPa 0,0 l/m 0 min 0 min 100 W/m 22,5 km/h (4 Bft) 97,87 %
03.01.2022 11:14 10,6 C 10,0 C 7,2 C 86 % 1012,4 hPa 0,0 l/m 0 min 0 min 100 W/m 22,5 km/h (4 Bft) 95,65 %
03.01.2022 11:16 10,6 C 10,6 C 7,2 C 86 % 1012,4 hPa 0,0 l/m 0 min 0 min 103 W/m 12,9 km/h (3 Bft) 95,74 %
03.01.2022 11:18 10,7 C 10,6 C 7,2 C 86 % 1012,3 hPa 0,0 l/m 0 min 0 min 83 W/m 22,5 km/h (4 Bft) 95,74 %
03.01.2022 11:20 10,7 C 10,6 C 7,2 C 86 % 1012,4 hPa 0,0 l/m 0 min 0 min 85 W/m 25,7 km/h (4 Bft) 97,87 %
03.01.2022 11:22 10,7 C 10,6 C 7,2 C 86 % 1012,4 hPa 0,0 l/m 0 min 0 min 100 W/m 19,3 km/h (3 Bft) 97,87 %
03.01.2022 11:24 10,7 C 10,6 C 7,2 C 86 % 1012,3 hPa 0,0 l/m 0 min 0 min 94 W/m 19,3 km/h (3 Bft) 97,87 %
03.01.2022 11:26 10,7 C 10,6 C 7,2 C 86 % 1012,4 hPa 0,0 l/m 0 min 0 min 73 W/m 19,3 km/h (3 Bft) 97,83 %
03.01.2022 11:28 10,7 C 10,6 C 7,2 C 86 % 1012,3 hPa 0,0 l/m 0 min 0 min 76 W/m 29,0 km/h (5 Bft) 97,87 %
03.01.2022 11:30 10,7 C 10,6 C 7,2 C 85 % 1012,2 hPa 0,0 l/m 0 min 0 min 78 W/m 12,9 km/h (3 Bft) 97,87 %
03.01.2022 11:32 10,7 C 10,6 C 7,2 C 86 % 1012,2 hPa 0,0 l/m 0 min 0 min 77 W/m 25,7 km/h (4 Bft) 97,87 %
03.01.2022 11:34 10,7 C 10,6 C 7,2 C 86 % 1012,3 hPa 0,0 l/m 0 min 0 min 55 W/m 19,3 km/h (3 Bft) 100,00 %
03.01.2022 11:36 10,7 C 10,0 C 7,2 C 85 % 1012,2 hPa 0,0 l/m 0 min 0 min 53 W/m 19,3 km/h (3 Bft) 100,00 %
03.01.2022 11:38 10,7 C 10,6 C 7,2 C 85 % 1012,2 hPa 0,0 l/m 0 min 0 min 75 W/m 16,1 km/h (3 Bft) 100,00 %
03.01.2022 11:40 10,7 C 10,6 C 7,2 C 85 % 1012,2 hPa 0,0 l/m 0 min 0 min 75 W/m 16,1 km/h (3 Bft) 100,00 %
03.01.2022 11:42 10,7 C 10,6 C 7,2 C 86 % 1012,1 hPa 0,0 l/m 0 min 0 min 79 W/m 29,0 km/h (5 Bft) 100,00 %
03.01.2022 11:44 10,7 C 10,6 C 7,2 C 86 % 1012,1 hPa 0,0 l/m 0 min 0 min 100 W/m 29,0 km/h (5 Bft) 100,00 %
03.01.2022 11:46 10,7 C 10,6 C 7,2 C 86 % 1012,1 hPa 0,0 l/m 0 min 0 min 122 W/m 22,5 km/h (4 Bft) 100,00 %
03.01.2022 11:48 10,7 C 10,6 C 7,2 C 86 % 1012,1 hPa 0,0 l/m 0 min 0 min 81 W/m 16,1 km/h (3 Bft) 100,00 %
03.01.2022 11:50 10,7 C 10,6 C 7,2 C 86 % 1012,1 hPa 0,0 l/m 0 min 0 min 96 W/m 12,9 km/h (3 Bft) 100,00 %
03.01.2022 11:52 10,8 C 10,6 C 7,8 C 86 % 1012,1 hPa 0,0 l/m 2 min 0 min 153 W/m 16,1 km/h (3 Bft) 100,00 %
03.01.2022 11:54 10,8 C 10,6 C 7,8 C 86 % 1012,1 hPa 0,0 l/m 2 min 0 min 167 W/m 22,5 km/h (4 Bft) 100,00 %
03.01.2022 11:56 10,9 C 11,1 C 7,8 C 86 % 1012,1 hPa 0,0 l/m 2 min 0 min 184 W/m 22,5 km/h (4 Bft) 97,87 %
03.01.2022 11:58 10,9 C 11,1 C 7,8 C 86 % 1012,0 hPa 0,0 l/m 2 min 0 min 179 W/m 16,1 km/h (3 Bft) 100,00 %
03.01.2022 12:00 10,9 C 11,1 C 7,8 C 86 % 1012,0 hPa 0,0 l/m 2 min 0 min 152 W/m 16,1 km/h (3 Bft) 97,87 %
03.01.2022 12:02 11,0 C 11,1 C 7,8 C 86 % 1012,0 hPa 0,0 l/m 2 min 0 min 177 W/m 19,3 km/h (3 Bft) 100,00 %
03.01.2022 12:04 11,1 C 11,1 C 7,8 C 85 % 1012,0 hPa 0,0 l/m 2 min 0 min 198 W/m 29,0 km/h (5 Bft) 100,00 %
03.01.2022 12:06 11,1 C 11,1 C 7,8 C 85 % 1012,0 hPa 0,0 l/m 2 min 0 min 184 W/m 19,3 km/h (3 Bft) 100,00 %
03.01.2022 12:08 11,1 C 11,1 C 7,8 C 85 % 1012,1 hPa 0,0 l/m 2 min 0 min 153 W/m 29,0 km/h (5 Bft) 100,00 %
03.01.2022 12:10 11,2 C 11,7 C 7,8 C 85 % 1012,0 hPa 0,0 l/m 2 min 0 min 188 W/m 25,7 km/h (4 Bft) 100,00 %
03.01.2022 12:12 11,2 C 11,7 C 8,3 C 85 % 1012,0 hPa 0,0 l/m 2 min 0 min 214 W/m 25,7 km/h (4 Bft) 100,00 %
03.01.2022 12:14 11,3 C 11,7 C 8,3 C 85 % 1011,9 hPa 0,0 l/m 2 min 0 min 230 W/m 19,3 km/h (3 Bft) 100,00 %
03.01.2022 12:16 11,3 C 11,7 C 8,3 C 85 % 1011,9 hPa 0,0 l/m 2 min 0 min 210 W/m 22,5 km/h (4 Bft) 97,83 %
03.01.2022 12:18 11,4 C 12,2 C 8,3 C 85 % 1011,8 hPa 0,0 l/m 2 min 0 min 248 W/m 22,5 km/h (4 Bft) 100,00 %
03.01.2022 12:20 11,5 C 12,2 C 8,3 C 85 % 1011,8 hPa 0,0 l/m 2 min 0 min 271 W/m 22,5 km/h (4 Bft) 97,87 %
03.01.2022 12:22 11,6 C 12,2 C 8,3 C 85 % 1011,9 hPa 0,0 l/m 2 min 0 min 249 W/m 29,0 km/h (5 Bft) 100,00 %
03.01.2022 12:24 11,6 C 12,2 C 8,3 C 84 % 1011,8 hPa 0,0 l/m 2 min 0 min 196 W/m 16,1 km/h (3 Bft) 100,00 %
03.01.2022 12:26 11,6 C 11,7 C 8,3 C 85 % 1011,6 hPa 0,0 l/m 2 min 0 min 182 W/m 19,3 km/h (3 Bft) 100,00 %
03.01.2022 12:28 11,6 C 11,7 C 8,3 C 84 % 1011,6 hPa 0,0 l/m 2 min 0 min 216 W/m 16,1 km/h (3 Bft) 100,00 %
03.01.2022 12:30 11,6 C 11,7 C 8,3 C 84 % 1011,5 hPa 0,0 l/m 2 min 0 min 199 W/m 22,5 km/h (4 Bft) 100,00 %
03.01.2022 12:32 11,6 C 11,7 C 8,3 C 84 % 1011,4 hPa 0,0 l/m 0 min 0 min 142 W/m 19,3 km/h (3 Bft) 100,00 %
03.01.2022 12:34 11,6 C 11,7 C 8,3 C 84 % 1011,4 hPa 0,0 l/m 0 min 0 min 139 W/m 22,5 km/h (4 Bft) 97,87 %
03.01.2022 12:36 11,6 C 11,7 C 8,3 C 84 % 1011,3 hPa 0,0 l/m 0 min 0 min 145 W/m 22,5 km/h (4 Bft) 97,87 %
03.01.2022 12:38 11,6 C 11,7 C 8,3 C 84 % 1011,3 hPa 0,0 l/m 0 min 0 min 139 W/m 19,3 km/h (3 Bft) 97,87 %
03.01.2022 12:40 11,5 C 11,7 C 8,3 C 84 % 1011,3 hPa 0,0 l/m 0 min 0 min 141 W/m 22,5 km/h (4 Bft) 100,00 %
03.01.2022 12:42 11,5 C 11,7 C 8,3 C 84 % 1011,2 hPa 0,0 l/m 0 min 0 min 137 W/m 41,8 km/h (6 Bft) 100,00 %
03.01.2022 12:44 11,5 C 11,7 C 8,3 C 84 % 1011,3 hPa 0,0 l/m 0 min 0 min 152 W/m 16,1 km/h (3 Bft) 100,00 %
03.01.2022 12:46 11,4 C 11,7 C 8,3 C 84 % 1011,2 hPa 0,0 l/m 2 min 0 min 194 W/m 22,5 km/h (4 Bft) 100,00 %
03.01.2022 12:48 11,4 C 11,7 C 8,3 C 84 % 1011,2 hPa 0,0 l/m 2 min 0 min 206 W/m 22,5 km/h (4 Bft) 97,87 %
03.01.2022 12:50 11,5 C 11,7 C 8,3 C 84 % 1011,2 hPa 0,0 l/m 0 min 0 min 152 W/m 45,1 km/h (6 Bft) 95,74 %
03.01.2022 12:52 11,5 C 11,1 C 8,3 C 84 % 1011,2 hPa 0,0 l/m 0 min 0 min 119 W/m 32,2 km/h (5 Bft) 97,83 %
03.01.2022 12:54 11,4 C 11,1 C 8,3 C 84 % 1011,3 hPa 0,0 l/m 0 min 0 min 105 W/m 22,5 km/h (4 Bft) 95,74 %
03.01.2022 12:56 11,4 C 11,1 C 7,8 C 84 % 1011,3 hPa 0,0 l/m 0 min 0 min 83 W/m 16,1 km/h (3 Bft) 95,74 %
03.01.2022 12:58 11,4 C 11,1 C 7,8 C 84 % 1011,3 hPa 0,0 l/m 0 min 0 min 67 W/m 16,1 km/h (3 Bft) 95,83 %
03.01.2022 13:00 11,4 C 10,6 C 7,8 C 84 % 1011,4 hPa 0,0 l/m 0 min 0 min 54 W/m 16,1 km/h (3 Bft) 95,65 %
03.01.2022 13:02 11,3 C 10,6 C 7,8 C 84 % 1011,2 hPa 0,0 l/m 0 min 0 min 42 W/m 22,5 km/h (4 Bft) 94,59 %
03.01.2022 13:04 11,3 C 10,6 C 7,8 C 84 % 1011,2 hPa 0,0 l/m 0 min 0 min 41 W/m 16,1 km/h (3 Bft) 95,65 %
03.01.2022 13:06 11,3 C 10,6 C 7,8 C 84 % 1011,1 hPa 0,0 l/m 0 min 0 min 41 W/m 19,3 km/h (3 Bft) 93,62 %
03.01.2022 13:08 11,2 C 10,6 C 7,8 C 84 % 1011,1 hPa 0,0 l/m 0 min 0 min 31 W/m 16,1 km/h (3 Bft) 91,49 %
03.01.2022 13:10 11,2 C 10,6 C 7,8 C 84 % 1011,1 hPa 0,0 l/m 0 min 0 min 22 W/m 22,5 km/h (4 Bft) 93,62 %
03.01.2022 13:12 11,2 C 10,6 C 7,2 C 85 % 1011,1 hPa 0,0 l/m 0 min 0 min 24 W/m 16,1 km/h (3 Bft) 93,62 %
03.01.2022 13:14 11,1 C 10,6 C 7,2 C 85 % 1011,0 hPa 0,0 l/m 0 min 0 min 23 W/m 19,3 km/h (3 Bft) 93,62 %
03.01.2022 13:16 11,1 C 10,6 C 7,2 C 85 % 1011,1 hPa 0,0 l/m 0 min 0 min 23 W/m 12,9 km/h (3 Bft) 93,48 %
03.01.2022 13:18 11,1 C 10,0 C 7,2 C 85 % 1011,0 hPa 0,0 l/m 0 min 2 min 21 W/m 19,3 km/h (3 Bft) 91,49 %
03.01.2022 13:20 11,1 C 10,0 C 7,2 C 85 % 1011,0 hPa 0,0 l/m 0 min 2 min 25 W/m 22,5 km/h (4 Bft) 95,74 %
03.01.2022 13:22 11,0 C 10,0 C 6,7 C 86 % 1011,0 hPa 0,0 l/m 0 min 2 min 50 W/m 16,1 km/h (3 Bft) 93,62 %
03.01.2022 13:24 10,9 C 10,0 C 6,7 C 86 % 1011,1 hPa 0,0 l/m 0 min 2 min 56 W/m 25,7 km/h (4 Bft) 91,49 %
03.01.2022 13:26 10,9 C 10,0 C 6,7 C 86 % 1011,0 hPa 0,0 l/m 0 min 0 min 37 W/m 25,7 km/h (4 Bft) 93,48 %
03.01.2022 13:28 10,9 C 9,4 C 6,7 C 87 % 1010,9 hPa 0,0 l/m 0 min 2 min 42 W/m 29,0 km/h (5 Bft) 93,62 %
03.01.2022 13:30 10,8 C 9,4 C 6,1 C 87 % 1010,9 hPa 0,0 l/m 0 min 2 min 49 W/m 25,7 km/h (4 Bft) 93,62 %
03.01.2022 13:32 10,8 C 9,4 C 6,1 C 88 % 1010,8 hPa 0,0 l/m 0 min 2 min 46 W/m 25,7 km/h (4 Bft) 93,62 %
03.01.2022 13:34 10,7 C 9,4 C 6,1 C 88 % 1010,9 hPa 0,0 l/m 0 min 0 min 36 W/m 16,1 km/h (3 Bft) 91,49 %
03.01.2022 13:36 10,7 C 10,0 C 6,1 C 88 % 1010,9 hPa 0,0 l/m 0 min 2 min 27 W/m 32,2 km/h (5 Bft) 93,62 %
03.01.2022 13:38 10,6 C 10,0 C 6,1 C 88 % 1010,9 hPa 0,0 l/m 0 min 2 min 29 W/m 16,1 km/h (3 Bft) 93,62 %
03.01.2022 13:40 10,6 C 10,0 C 6,1 C 88 % 1010,9 hPa 0,0 l/m 0 min 2 min 30 W/m 22,5 km/h (4 Bft) 93,48 %
03.01.2022 13:42 10,6 C 10,0 C 6,1 C 88 % 1010,9 hPa 0,0 l/m 0 min 2 min 28 W/m 22,5 km/h (4 Bft) 95,74 %
03.01.2022 13:44 10,5 C 9,4 C 6,1 C 88 % 1010,9 hPa 0,0 l/m 0 min 2 min 28 W/m 19,3 km/h (3 Bft) 91,49 %
03.01.2022 13:46 10,4 C 9,4 C 5,6 C 89 % 1010,8 hPa 0,0 l/m 0 min 2 min 38 W/m 22,5 km/h (4 Bft) 97,87 %
03.01.2022 13:48 10,4 C 9,4 C 5,6 C 88 % 1010,7 hPa 0,0 l/m 0 min 2 min 46 W/m 38,6 km/h (5 Bft) 97,87 %
03.01.2022 13:50 10,3 C 9,4 C 5,6 C 88 % 1010,7 hPa 0,0 l/m 0 min 2 min 43 W/m 25,7 km/h (4 Bft) 97,83 %
03.01.2022 13:52 10,3 C 9,4 C 5,6 C 89 % 1010,7 hPa 0,0 l/m 0 min 2 min 39 W/m 22,5 km/h (4 Bft) 100,00 %
03.01.2022 13:54 10,2 C 9,4 C 5,6 C 89 % 1010,6 hPa 0,0 l/m 0 min 2 min 35 W/m 32,2 km/h (5 Bft) 100,00 %
03.01.2022 13:56 10,2 C 9,4 C 5,6 C 89 % 1010,6 hPa 0,0 l/m 0 min 2 min 34 W/m 25,7 km/h (4 Bft) 55,56 %
03.01.2022 13:58 10,1 C 9,4 C 5,6 C 89 % 1010,6 hPa 0,0 l/m 0 min 0 min 33 W/m 22,5 km/h (4 Bft) 100,00 %
03.01.2022 14:00 10,1 C 9,4 C 5,6 C 89 % 1010,5 hPa 0,0 l/m 0 min 0 min 28 W/m 19,3 km/h (3 Bft) 100,00 %
03.01.2022 14:02 10,0 C 9,4 C 5,6 C 89 % 1010,5 hPa 0,0 l/m 0 min 0 min 26 W/m 22,5 km/h (4 Bft) 100,00 %
03.01.2022 14:04 10,0 C 9,4 C 5,6 C 89 % 1010,5 hPa 0,0 l/m 0 min 0 min 35 W/m 16,1 km/h (3 Bft) 100,00 %
03.01.2022 14:06 9,9 C 9,4 C 5,6 C 89 % 1010,4 hPa 0,0 l/m 0 min 0 min 39 W/m 12,9 km/h (3 Bft) 100,00 %
03.01.2022 14:08 9,9 C 9,4 C 5,6 C 90 % 1010,5 hPa 0,0 l/m 0 min 0 min 38 W/m 22,5 km/h (4 Bft) 97,87 %
03.01.2022 14:10 9,9 C 9,4 C 6,1 C 90 % 1010,5 hPa 0,0 l/m 0 min 0 min 37 W/m 12,9 km/h (3 Bft) 100,00 %
03.01.2022 14:12 9,9 C 9,4 C 6,1 C 90 % 1010,4 hPa 0,0 l/m 0 min 0 min 39 W/m 16,1 km/h (3 Bft) 100,00 %
03.01.2022 14:14 9,9 C 9,4 C 6,1 C 90 % 1010,4 hPa 0,0 l/m 0 min 0 min 45 W/m 19,3 km/h (3 Bft) 100,00 %
03.01.2022 14:16 9,9 C 9,4 C 6,1 C 90 % 1010,3 hPa 0,0 l/m 0 min 0 min 50 W/m 29,0 km/h (5 Bft) 100,00 %
03.01.2022 14:18 9,8 C 9,4 C 6,1 C 90 % 1010,3 hPa 0,0 l/m 0 min 0 min 52 W/m 19,3 km/h (3 Bft) 100,00 %
03.01.2022 14:20 9,8 C 9,4 C 6,1 C 90 % 1010,3 hPa 0,0 l/m 0 min 0 min 54 W/m 29,0 km/h (5 Bft) 100,00 %
03.01.2022 14:22 9,8 C 9,4 C 6,1 C 90 % 1010,3 hPa 0,0 l/m 0 min 0 min 53 W/m 22,5 km/h (4 Bft) 100,00 %
03.01.2022 14:24 9,8 C 9,4 C 6,1 C 90 % 1010,3 hPa 0,0 l/m 0 min 0 min 47 W/m 12,9 km/h (3 Bft) 100,00 %
03.01.2022 14:26 9,8 C 9,4 C 6,1 C 90 % 1010,3 hPa 0,0 l/m 0 min 0 min 46 W/m 19,3 km/h (3 Bft) 97,83 %
03.01.2022 14:28 9,8 C 9,4 C 6,1 C 90 % 1010,2 hPa 0,0 l/m 0 min 0 min 54 W/m 12,9 km/h (3 Bft) 100,00 %
03.01.2022 14:30 9,9 C 9,4 C 6,1 C 90 % 1010,2 hPa 0,0 l/m 0 min 2 min 46 W/m 19,3 km/h (3 Bft) 100,00 %
03.01.2022 14:32 9,9 C 9,4 C 6,1 C 91 % 1010,2 hPa 0,0 l/m 0 min 0 min 39 W/m 9,7 km/h (2 Bft) 100,00 %
03.01.2022 14:34 9,9 C 9,4 C 6,1 C 91 % 1010,2 hPa 0,0 l/m 0 min 0 min 32 W/m 25,7 km/h (4 Bft) 100,00 %
03.01.2022 14:36 9,9 C 9,4 C 6,1 C 91 % 1010,2 hPa 0,0 l/m 0 min 2 min 28 W/m 19,3 km/h (3 Bft) 100,00 %
03.01.2022 14:38 9,8 C 9,4 C 6,1 C 91 % 1010,2 hPa 0,0 l/m 0 min 0 min 27 W/m 9,7 km/h (2 Bft) 97,83 %
03.01.2022 14:40 9,9 C 9,4 C 6,1 C 91 % 1010,2 hPa 0,0 l/m 0 min 0 min 32 W/m 22,5 km/h (4 Bft) 100,00 %
03.01.2022 14:42 9,9 C 9,4 C 6,1 C 91 % 1010,2 hPa 0,0 l/m 0 min 0 min 38 W/m 16,1 km/h (3 Bft) 100,00 %
03.01.2022 14:44 9,9 C 9,4 C 6,1 C 91 % 1010,1 hPa 0,0 l/m 0 min 0 min 38 W/m 12,9 km/h (3 Bft) 100,00 %
03.01.2022 14:46 9,9 C 9,4 C 6,1 C 91 % 1010,1 hPa 0,0 l/m 0 min 0 min 37 W/m 22,5 km/h (4 Bft) 100,00 %
03.01.2022 14:48 9,9 C 9,4 C 6,1 C 91 % 1010,0 hPa 0,0 l/m 0 min 0 min 42 W/m 16,1 km/h (3 Bft) 100,00 %
03.01.2022 14:50 9,9 C 9,4 C 6,1 C 91 % 1010,0 hPa 0,0 l/m 0 min 0 min 44 W/m 16,1 km/h (3 Bft) 100,00 %
03.01.2022 14:52 9,9 C 9,4 C 6,1 C 91 % 1010,0 hPa 0,0 l/m 0 min 0 min 43 W/m 12,9 km/h (3 Bft) 95,65 %
03.01.2022 14:54 9,9 C 9,4 C 6,1 C 91 % 1009,9 hPa 0,0 l/m 0 min 2 min 42 W/m 16,1 km/h (3 Bft) 100,00 %
03.01.2022 14:56 9,9 C 9,4 C 6,1 C 91 % 1010,0 hPa 0,0 l/m 0 min 2 min 41 W/m 19,3 km/h (3 Bft) 100,00 %
03.01.2022 14:58 9,9 C 9,4 C 6,1 C 91 % 1009,9 hPa 0,0 l/m 0 min 2 min 36 W/m 16,1 km/h (3 Bft) 100,00 %
03.01.2022 15:00 9,9 C 9,4 C 6,1 C 91 % 1009,9 hPa 0,0 l/m 0 min 2 min 33 W/m 22,5 km/h (4 Bft) 100,00 %
03.01.2022 15:02 9,9 C 9,4 C 6,1 C 91 % 1009,9 hPa 0,0 l/m 0 min 2 min 31 W/m 25,7 km/h (4 Bft) 95,74 %
03.01.2022 15:04 9,9 C 9,4 C 6,1 C 90 % 1009,9 hPa 0,0 l/m 0 min 2 min 29 W/m 25,7 km/h (4 Bft) 97,83 %
03.01.2022 15:06 9,9 C 9,4 C 6,1 C 90 % 1010,0 hPa 0,0 l/m 0 min 0 min 26 W/m 16,1 km/h (3 Bft) 97,87 %
03.01.2022 15:08 9,9 C 9,4 C 6,1 C 90 % 1009,9 hPa 0,0 l/m 0 min 0 min 24 W/m 16,1 km/h (3 Bft) 95,74 %
03.01.2022 15:10 9,9 C 9,4 C 6,1 C 90 % 1009,9 hPa 0,0 l/m 0 min 0 min 23 W/m 25,7 km/h (4 Bft) 97,87 %
03.01.2022 15:12 9,9 C 9,4 C 6,1 C 90 % 1009,9 hPa 0,0 l/m 0 min 2 min 22 W/m 22,5 km/h (4 Bft) 97,87 %
03.01.2022 15:14 9,8 C 9,4 C 6,1 C 90 % 1009,8 hPa 0,0 l/m 0 min 2 min 19 W/m 22,5 km/h (4 Bft) 97,87 %
03.01.2022 15:16 9,8 C 8,9 C 6,1 C 90 % 1009,8 hPa 0,0 l/m 0 min 2 min 17 W/m 16,1 km/h (3 Bft) 97,83 %
03.01.2022 15:18 9,8 C 8,9 C 6,1 C 90 % 1009,9 hPa 0,0 l/m 0 min 2 min 12 W/m 19,3 km/h (3 Bft) 97,87 %
03.01.2022 15:20 9,7 C 8,9 C 6,1 C 90 % 1009,9 hPa 0,0 l/m 0 min 2 min 12 W/m 22,5 km/h (4 Bft) 95,74 %
03.01.2022 15:22 9,7 C 8,9 C 5,6 C 90 % 1009,9 hPa 0,0 l/m 0 min 2 min 12 W/m 25,7 km/h (4 Bft) 97,87 %
03.01.2022 15:24 9,6 C 8,9 C 5,6 C 90 % 1009,9 hPa 0,2 l/m 0 min 2 min 11 W/m 22,5 km/h (4 Bft) 97,87 %
03.01.2022 15:26 9,6 C 8,3 C 5,6 C 91 % 1009,9 hPa 0,0 l/m 0 min 2 min 11 W/m 22,5 km/h (4 Bft) 97,87 %
03.01.2022 15:28 9,4 C 8,3 C 5,0 C 91 % 1009,8 hPa 0,0 l/m 0 min 2 min 11 W/m 29,0 km/h (5 Bft) 97,83 %
03.01.2022 15:30 9,4 C 8,3 C 5,0 C 91 % 1009,8 hPa 0,0 l/m 0 min 2 min 11 W/m 19,3 km/h (3 Bft) 97,87 %
03.01.2022 15:32 9,3 C 7,8 C 5,0 C 91 % 1009,8 hPa 0,2 l/m 0 min 2 min 11 W/m 19,3 km/h (3 Bft) 95,74 %
03.01.2022 15:34 9,2 C 7,8 C 5,0 C 92 % 1009,8 hPa 0,0 l/m 0 min 2 min 11 W/m 22,5 km/h (4 Bft) 95,74 %
03.01.2022 15:36 9,2 C 7,8 C 5,0 C 92 % 1009,8 hPa 0,0 l/m 0 min 2 min 8 W/m 16,1 km/h (3 Bft) 97,87 %
03.01.2022 15:38 9,2 C 7,8 C 5,0 C 92 % 1009,8 hPa 0,0 l/m 0 min 2 min 7 W/m 16,1 km/h (3 Bft) 100,00 %
03.01.2022 15:40 9,1 C 7,8 C 5,0 C 92 % 1009,7 hPa 0,0 l/m 0 min 2 min 6 W/m 16,1 km/h (3 Bft) 97,83 %
03.01.2022 15:42 9,1 C 7,8 C 5,0 C 93 % 1009,7 hPa 0,2 l/m 0 min 2 min 5 W/m 12,9 km/h (3 Bft) 100,00 %
03.01.2022 15:44 9,1 C 7,8 C 5,0 C 93 % 1009,7 hPa 0,0 l/m 0 min 2 min 6 W/m 12,9 km/h (3 Bft) 97,87 %
03.01.2022 15:46 9,1 C 7,8 C 5,0 C 93 % 1009,7 hPa 0,0 l/m 0 min 2 min 7 W/m 16,1 km/h (3 Bft) 97,87 %
03.01.2022 15:48 9,0 C 7,8 C 5,0 C 93 % 1009,7 hPa 0,0 l/m 0 min 2 min 6 W/m 12,9 km/h (3 Bft) 93,62 %
03.01.2022 15:50 8,9 C 7,8 C 5,0 C 93 % 1009,7 hPa 0,2 l/m 0 min 2 min 5 W/m 29,0 km/h (5 Bft) 95,74 %
03.01.2022 15:52 8,9 C 7,8 C 5,0 C 93 % 1009,6 hPa 0,0 l/m 0 min 2 min 5 W/m 6,4 km/h (2 Bft) 93,48 %
03.01.2022 15:54 8,9 C 7,8 C 5,0 C 93 % 1009,5 hPa 0,2 l/m 0 min 2 min 5 W/m 12,9 km/h (3 Bft) 95,74 %
03.01.2022 15:56 8,9 C 7,8 C 5,0 C 94 % 1009,6 hPa 0,0 l/m 0 min 2 min 5 W/m 12,9 km/h (3 Bft) 95,74 %
03.01.2022 15:58 8,8 C 7,8 C 5,0 C 94 % 1009,6 hPa 0,0 l/m 0 min 2 min 5 W/m 6,4 km/h (2 Bft) 95,74 %
03.01.2022 16:00 8,8 C 7,2 C 5,0 C 94 % 1009,5 hPa 0,0 l/m 0 min 2 min 5 W/m 12,9 km/h (3 Bft) 93,62 %
03.01.2022 16:02 8,8 C 7,2 C 5,0 C 94 % 1009,5 hPa 0,0 l/m 0 min 2 min 5 W/m 6,4 km/h (2 Bft) 95,74 %
03.01.2022 16:04 8,8 C 7,2 C 5,0 C 94 % 1009,5 hPa 0,2 l/m 0 min 2 min 5 W/m 6,4 km/h (2 Bft) 93,48 %
03.01.2022 16:06 8,8 C 7,2 C 5,0 C 94 % 1009,4 hPa 0,0 l/m 0 min 2 min 5 W/m 9,7 km/h (2 Bft) 95,74 %
03.01.2022 16:08 8,8 C 7,2 C 5,0 C 94 % 1009,4 hPa 0,0 l/m 0 min 2 min 5 W/m 12,9 km/h (3 Bft) 95,74 %
03.01.2022 16:10 8,7 C 7,2 C 5,0 C 94 % 1009,4 hPa 0,2 l/m 0 min 2 min 2 W/m 16,1 km/h (3 Bft) 95,74 %
03.01.2022 16:12 8,7 C 7,2 C 5,0 C 94 % 1009,4 hPa 0,0 l/m 0 min 2 min 0 W/m 19,3 km/h (3 Bft) 95,74 %
03.01.2022 16:14 8,7 C 7,2 C 5,0 C 94 % 1009,3 hPa 0,0 l/m 0 min 2 min 0 W/m 12,9 km/h (3 Bft) 93,62 %
03.01.2022 16:16 8,7 C 7,2 C 5,0 C 94 % 1009,3 hPa 0,0 l/m 0 min 2 min 0 W/m 12,9 km/h (3 Bft) 95,65 %
03.01.2022 16:18 8,7 C 7,2 C 5,0 C 94 % 1009,3 hPa 0,0 l/m 0 min 2 min 0 W/m 19,3 km/h (3 Bft) 93,62 %
03.01.2022 16:20 8,6 C 7,2 C 5,0 C 95 % 1009,3 hPa 0,0 l/m 0 min 2 min 0 W/m 22,5 km/h (4 Bft) 93,62 %
03.01.2022 16:22 8,6 C 7,2 C 5,0 C 95 % 1009,3 hPa 0,2 l/m 0 min 2 min 0 W/m 16,1 km/h (3 Bft) 95,74 %
03.01.2022 16:24 8,6 C 7,2 C 5,0 C 95 % 1009,2 hPa 0,0 l/m 0 min 2 min 0 W/m 19,3 km/h (3 Bft) 95,74 %
03.01.2022 16:26 8,6 C 7,2 C 5,0 C 95 % 1009,1 hPa 0,0 l/m 0 min 2 min 0 W/m 19,3 km/h (3 Bft) 95,65 %
03.01.2022 16:28 8,6 C 7,2 C 5,0 C 95 % 1009,2 hPa 0,0 l/m 0 min 2 min 0 W/m 12,9 km/h (3 Bft) 95,74 %
03.01.2022 16:30 8,6 C 7,2 C 5,0 C 95 % 1009,1 hPa 0,0 l/m 0 min 2 min 0 W/m 16,1 km/h (3 Bft) 97,87 %
03.01.2022 16:32 8,6 C 7,2 C 5,0 C 95 % 1009,0 hPa 0,0 l/m 0 min 2 min 0 W/m 16,1 km/h (3 Bft) 95,74 %
03.01.2022 16:34 8,6 C 7,2 C 5,0 C 95 % 1009,0 hPa 0,0 l/m 0 min 2 min 0 W/m 9,7 km/h (2 Bft) 97,87 %
03.01.2022 16:36 8,6 C 7,2 C 5,0 C 95 % 1009,0 hPa 0,2 l/m 0 min 2 min 0 W/m 12,9 km/h (3 Bft) 95,74 %
03.01.2022 16:38 8,6 C 7,8 C 5,0 C 95 % 1009,0 hPa 0,0 l/m 0 min 2 min 0 W/m 22,5 km/h (4 Bft) 95,65 %
03.01.2022 16:40 8,6 C 7,8 C 5,0 C 95 % 1008,9 hPa 0,0 l/m 0 min 2 min 0 W/m 19,3 km/h (3 Bft) 97,87 %
03.01.2022 16:42 8,6 C 7,8 C 5,0 C 95 % 1008,9 hPa 0,0 l/m 0 min 2 min 0 W/m 16,1 km/h (3 Bft) 100,00 %
03.01.2022 16:44 8,6 C 7,8 C 5,0 C 95 % 1008,9 hPa 0,0 l/m 0 min 2 min 0 W/m 12,9 km/h (3 Bft) 97,87 %
03.01.2022 16:46 8,6 C 7,8 C 5,0 C 95 % 1008,9 hPa 0,0 l/m 0 min 2 min 0 W/m 19,3 km/h (3 Bft) 100,00 %
03.01.2022 16:48 8,5 C 7,2 C 5,0 C 95 % 1008,8 hPa 0,0 l/m 0 min 2 min 0 W/m 16,1 km/h (3 Bft) 100,00 %
03.01.2022 16:50 8,5 C 7,2 C 5,0 C 95 % 1008,9 hPa 0,0 l/m 0 min 2 min 0 W/m 19,3 km/h (3 Bft) 97,83 %
03.01.2022 16:52 8,5 C 7,2 C 5,0 C 95 % 1008,9 hPa 0,0 l/m 0 min 2 min 0 W/m 22,5 km/h (4 Bft) 100,00 %
03.01.2022 16:54 8,5 C 7,2 C 5,0 C 96 % 1008,8 hPa 0,2 l/m 0 min 2 min 0 W/m 12,9 km/h (3 Bft) 97,87 %
03.01.2022 16:56 8,5 C 7,2 C 5,0 C 96 % 1008,7 hPa 0,0 l/m 0 min 2 min 0 W/m 19,3 km/h (3 Bft) 95,74 %
03.01.2022 16:58 8,5 C 7,8 C 5,0 C 96 % 1008,8 hPa 0,0 l/m 0 min 2 min 0 W/m 22,5 km/h (4 Bft) 95,74 %
03.01.2022 17:00 8,5 C 7,8 C 5,0 C 96 % 1008,8 hPa 0,0 l/m 0 min 2 min 0 W/m 16,1 km/h (3 Bft) 95,74 %
03.01.2022 17:02 8,4 C 7,8 C 5,0 C 96 % 1008,7 hPa 0,0 l/m 0 min 2 min 0 W/m 16,1 km/h (3 Bft) 97,83 %
03.01.2022 17:04 8,4 C 7,8 C 5,0 C 96 % 1008,7 hPa 0,0 l/m 0 min 2 min 0 W/m 19,3 km/h (3 Bft) 97,87 %
03.01.2022 17:06 8,5 C 7,8 C 5,0 C 96 % 1008,7 hPa 0,2 l/m 0 min 2 min 0 W/m 16,1 km/h (3 Bft) 97,87 %
03.01.2022 17:08 8,5 C 7,8 C 5,0 C 96 % 1008,7 hPa 0,0 l/m 0 min 2 min 0 W/m 12,9 km/h (3 Bft) 97,87 %
03.01.2022 17:10 8,5 C 7,2 C 5,0 C 96 % 1008,6 hPa 0,0 l/m 0 min 2 min 0 W/m 16,1 km/h (3 Bft) 97,87 %
03.01.2022 17:12 8,4 C 7,2 C 5,0 C 96 % 1008,5 hPa 0,0 l/m 0 min 2 min 0 W/m 12,9 km/h (3 Bft) 97,87 %
03.01.2022 17:14 8,4 C 7,2 C 5,0 C 96 % 1008,5 hPa 0,0 l/m 0 min 2 min 0 W/m 19,3 km/h (3 Bft) 97,83 %
03.01.2022 17:16 8,4 C 7,2 C 5,0 C 96 % 1008,4 hPa 0,0 l/m 0 min 0 min 0 W/m 16,1 km/h (3 Bft) 95,74 %
03.01.2022 17:18 8,4 C 7,8 C 5,0 C 96 % 1008,4 hPa 0,0 l/m 0 min 2 min 0 W/m 16,1 km/h (3 Bft) 97,87 %
03.01.2022 17:20 8,4 C 7,2 C 5,0 C 96 % 1008,4 hPa 0,0 l/m 0 min 2 min 0 W/m 12,9 km/h (3 Bft) 97,87 %
03.01.2022 17:22 8,4 C 7,2 C 5,0 C 96 % 1008,4 hPa 0,2 l/m 0 min 2 min 0 W/m 9,7 km/h (2 Bft) 91,49 %
03.01.2022 17:24 8,4 C 7,2 C 5,0 C 96 % 1008,4 hPa 0,0 l/m 0 min 2 min 0 W/m 12,9 km/h (3 Bft) 97,87 %
03.01.2022 17:26 8,4 C 7,2 C 5,0 C 96 % 1008,3 hPa 0,0 l/m 0 min 2 min 0 W/m 16,1 km/h (3 Bft) 97,83 %
03.01.2022 17:28 8,4 C 7,2 C 5,0 C 96 % 1008,3 hPa 0,0 l/m 0 min 0 min 0 W/m 12,9 km/h (3 Bft) 100,00 %
03.01.2022 17:30 8,4 C 7,2 C 5,0 C 96 % 1008,2 hPa 0,0 l/m 0 min 0 min 0 W/m 9,7 km/h (2 Bft) 100,00 %
03.01.2022 17:32 8,4 C 7,2 C 5,0 C 96 % 1008,3 hPa 0,0 l/m 0 min 0 min 0 W/m 6,4 km/h (2 Bft) 100,00 %
03.01.2022 17:34 8,4 C 7,2 C 5,0 C 96 % 1008,2 hPa 0,0 l/m 0 min 0 min 0 W/m 12,9 km/h (3 Bft) 100,00 %
03.01.2022 17:36 8,4 C 7,2 C 5,0 C 96 % 1008,2 hPa 0,0 l/m 0 min 0 min 0 W/m 12,9 km/h (3 Bft) 97,87 %
03.01.2022 17:38 8,4 C 7,8 C 5,0 C 96 % 1008,1 hPa 0,0 l/m 0 min 0 min 0 W/m 16,1 km/h (3 Bft) 100,00 %
03.01.2022 17:40 8,4 C 7,2 C 5,0 C 96 % 1008,1 hPa 0,0 l/m 0 min 0 min 0 W/m 6,4 km/h (2 Bft) 100,00 %
03.01.2022 17:42 8,4 C 7,8 C 5,0 C 96 % 1008,1 hPa 0,0 l/m 0 min 0 min 0 W/m 16,1 km/h (3 Bft) 100,00 %
03.01.2022 17:44 8,4 C 7,8 C 5,0 C 96 % 1008,1 hPa 0,0 l/m 0 min 0 min 0 W/m 12,9 km/h (3 Bft) 100,00 %
03.01.2022 17:46 8,4 C 7,2 C 5,0 C 96 % 1008,1 hPa 0,0 l/m 0 min 0 min 0 W/m 9,7 km/h (2 Bft) 97,87 %
03.01.2022 17:48 8,4 C 7,2 C 5,0 C 96 % 1008,1 hPa 0,0 l/m 0 min 0 min 0 W/m 16,1 km/h (3 Bft) 97,83 %
03.01.2022 17:50 8,4 C 7,2 C 5,0 C 96 % 1008,1 hPa 0,0 l/m 0 min 0 min 0 W/m 16,1 km/h (3 Bft) 100,00 %
03.01.2022 17:52 8,4 C 7,2 C 5,0 C 96 % 1008,2 hPa 0,0 l/m 0 min 0 min 0 W/m 9,7 km/h (2 Bft) 100,00 %
03.01.2022 17:54 8,4 C 7,2 C 5,0 C 96 % 1008,1 hPa 0,0 l/m 0 min 0 min 0 W/m 6,4 km/h (2 Bft) 100,00 %
03.01.2022 17:56 8,3 C 7,2 C 5,0 C 96 % 1008,1 hPa 0,0 l/m 0 min 0 min 0 W/m 16,1 km/h (3 Bft) 97,87 %
03.01.2022 17:58 8,3 C 7,2 C 5,0 C 96 % 1008,0 hPa 0,0 l/m 0 min 0 min 0 W/m 12,9 km/h (3 Bft) 100,00 %
03.01.2022 18:00 8,3 C 7,2 C 5,0 C 96 % 1008,0 hPa 0,0 l/m 0 min 0 min 0 W/m 12,9 km/h (3 Bft) 100,00 %
03.01.2022 18:02 8,3 C 7,2 C 5,0 C 96 % 1008,0 hPa 0,0 l/m 0 min 0 min 0 W/m 12,9 km/h (3 Bft) 97,83 %
03.01.2022 18:04 8,3 C 7,2 C 5,0 C 96 % 1007,8 hPa 0,0 l/m 0 min 0 min 0 W/m 16,1 km/h (3 Bft) 100,00 %
03.01.2022 18:06 8,3 C 7,2 C 5,0 C 96 % 1007,9 hPa 0,0 l/m 0 min 0 min 0 W/m 9,7 km/h (2 Bft) 100,00 %
03.01.2022 18:08 8,3 C 7,2 C 5,0 C 96 % 1007,8 hPa 0,0 l/m 0 min 0 min 0 W/m 6,4 km/h (2 Bft) 97,87 %
03.01.2022 18:10 8,3 C 7,2 C 5,0 C 96 % 1007,8 hPa 0,0 l/m 0 min 0 min 0 W/m 6,4 km/h (2 Bft) 97,87 %
03.01.2022 18:12 8,3 C 7,2 C 5,0 C 96 % 1007,9 hPa 0,0 l/m 0 min 0 min 0 W/m 6,4 km/h (2 Bft) 100,00 %
03.01.2022 18:14 8,3 C 7,2 C 5,0 C 96 % 1007,9 hPa 0,0 l/m 0 min 0 min 0 W/m 9,7 km/h (2 Bft) 100,00 %
03.01.2022 18:16 8,3 C 7,2 C 5,0 C 96 % 1007,9 hPa 0,0 l/m 0 min 0 min 0 W/m 3,2 km/h (1 Bft) 100,00 %
03.01.2022 18:18 8,3 C 7,2 C 5,0 C 96 % 1007,9 hPa 0,0 l/m 0 min 0 min 0 W/m 6,4 km/h (2 Bft) 100,00 %
03.01.2022 18:20 8,2 C 7,2 C 5,0 C 96 % 1007,9 hPa 0,0 l/m 0 min 0 min 0 W/m 9,7 km/h (2 Bft) 97,87 %
03.01.2022 18:22 8,3 C 7,2 C 5,0 C 96 % 1007,9 hPa 0,0 l/m 0 min 0 min 0 W/m 6,4 km/h (2 Bft) 95,74 %
03.01.2022 18:24 8,3 C 7,2 C 5,0 C 96 % 1007,9 hPa 0,0 l/m 0 min 0 min 0 W/m 9,7 km/h (2 Bft) 97,87 %
03.01.2022 18:26 8,2 C 7,2 C 5,0 C 96 % 1007,8 hPa 0,0 l/m 0 min 0 min 0 W/m 6,4 km/h (2 Bft) 97,83 %
03.01.2022 18:28 8,2 C 7,2 C 5,0 C 96 % 1007,9 hPa 0,0 l/m 0 min 0 min 0 W/m 12,9 km/h (3 Bft) 97,87 %
03.01.2022 18:30 8,2 C 7,2 C 5,0 C 96 % 1007,8 hPa 0,0 l/m 0 min 0 min 0 W/m 6,4 km/h (2 Bft) 97,87 %
03.01.2022 18:32 8,2 C 7,2 C 5,0 C 96 % 1007,8 hPa 0,0 l/m 0 min 0 min 0 W/m 6,4 km/h (2 Bft) 97,87 %
03.01.2022 18:34 8,2 C 7,2 C 5,0 C 96 % 1007,8 hPa 0,0 l/m 0 min 0 min 0 W/m 9,7 km/h (2 Bft) 95,74 %
03.01.2022 18:36 8,2 C 7,2 C 5,0 C 96 % 1007,8 hPa 0,0 l/m 0 min 0 min 0 W/m 6,4 km/h (2 Bft) 97,83 %
03.01.2022 18:38 8,2 C 7,2 C 5,0 C 96 % 1007,7 hPa 0,0 l/m 0 min 0 min 0 W/m 6,4 km/h (2 Bft) 95,74 %
03.01.2022 18:40 8,3 C 7,2 C 5,0 C 96 % 1007,6 hPa 0,0 l/m 0 min 0 min 0 W/m 12,9 km/h (3 Bft) 97,87 %
03.01.2022 18:42 8,3 C 7,8 C 5,0 C 96 % 1007,5 hPa 0,0 l/m 0 min 0 min 0 W/m 12,9 km/h (3 Bft) 97,87 %
03.01.2022 18:44 8,3 C 7,8 C 5,0 C 97 % 1007,5 hPa 0,0 l/m 0 min 0 min 0 W/m 6,4 km/h (2 Bft) 97,87 %
03.01.2022 18:46 8,3 C 7,8 C 5,0 C 97 % 1007,5 hPa 0,0 l/m 0 min 0 min 0 W/m 16,1 km/h (3 Bft) 97,87 %
03.01.2022 18:48 8,3 C 7,8 C 5,0 C 97 % 1007,4 hPa 0,0 l/m 0 min 0 min 0 W/m 12,9 km/h (3 Bft) 93,48 %
03.01.2022 18:50 8,3 C 7,8 C 5,0 C 97 % 1007,5 hPa 0,0 l/m 0 min 0 min 0 W/m 9,7 km/h (2 Bft) 93,62 %
03.01.2022 18:52 8,3 C 7,8 C 5,0 C 97 % 1007,5 hPa 0,0 l/m 0 min 0 min 0 W/m 6,4 km/h (2 Bft) 93,62 %
03.01.2022 18:54 8,3 C 7,8 C 5,0 C 97 % 1007,5 hPa 0,0 l/m 0 min 0 min 0 W/m 6,4 km/h (2 Bft) 89,36 %
03.01.2022 18:56 8,3 C 7,8 C 5,0 C 97 % 1007,4 hPa 0,0 l/m 0 min 0 min 0 W/m 6,4 km/h (2 Bft) 93,62 %
03.01.2022 18:58 8,4 C 7,8 C 5,0 C 97 % 1007,4 hPa 0,0 l/m 0 min 0 min 0 W/m 12,9 km/h (3 Bft) 93,62 %
03.01.2022 19:00 8,4 C 7,8 C 5,0 C 97 % 1007,4 hPa 0,0 l/m 0 min 0 min 0 W/m 9,7 km/h (2 Bft) 91,30 %
03.01.2022 19:02 8,4 C 7,8 C 5,0 C 97 % 1007,4 hPa 0,0 l/m 0 min 0 min 0 W/m 9,7 km/h (2 Bft) 93,62 %
03.01.2022 19:04 8,4 C 7,8 C 5,0 C 97 % 1007,4 hPa 0,0 l/m 0 min 0 min 0 W/m 9,7 km/h (2 Bft) 93,62 %
03.01.2022 19:06 8,4 C 7,8 C 5,0 C 97 % 1007,3 hPa 0,0 l/m 0 min 0 min 0 W/m 6,4 km/h (2 Bft) 95,74 %
03.01.2022 19:08 8,4 C 7,8 C 5,0 C 97 % 1007,2 hPa 0,0 l/m 0 min 0 min 0 W/m 6,4 km/h (2 Bft) 95,74 %
03.01.2022 19:10 8,4 C 7,8 C 5,0 C 97 % 1007,2 hPa 0,0 l/m 0 min 0 min 0 W/m 12,9 km/h (3 Bft) 95,74 %
03.01.2022 19:12 8,4 C 7,8 C 5,0 C 97 % 1007,3 hPa 0,0 l/m 0 min 0 min 0 W/m 9,7 km/h (2 Bft) 93,48 %
03.01.2022 19:14 8,4 C 7,8 C 5,0 C 97 % 1007,2 hPa 0,0 l/m 0 min 0 min 0 W/m 6,4 km/h (2 Bft) 95,74 %
03.01.2022 19:16 8,4 C 7,8 C 5,0 C 97 % 1007,2 hPa 0,0 l/m 0 min 0 min 0 W/m 6,4 km/h (2 Bft) 95,74 %
03.01.2022 19:18 8,4 C 7,8 C 5,0 C 97 % 1007,2 hPa 0,0 l/m 0 min 0 min 0 W/m 6,4 km/h (2 Bft) 93,62 %
03.01.2022 19:20 8,4 C 7,8 C 5,0 C 97 % 1007,2 hPa 0,0 l/m 0 min 0 min 0 W/m 6,4 km/h (2 Bft) 97,87 %
03.01.2022 19:22 8,4 C 7,8 C 5,0 C 97 % 1007,2 hPa 0,0 l/m 0 min 0 min 0 W/m 6,4 km/h (2 Bft) 97,87 %
03.01.2022 19:24 8,4 C 7,8 C 5,0 C 97 % 1007,2 hPa 0,0 l/m 0 min 0 min 0 W/m 6,4 km/h (2 Bft) 100,00 %
03.01.2022 19:26 8,4 C 7,8 C 5,0 C 97 % 1007,2 hPa 0,0 l/m 0 min 0 min 0 W/m 3,2 km/h (1 Bft) 97,87 %
03.01.2022 19:28 8,4 C 7,8 C 5,0 C 97 % 1007,2 hPa 0,0 l/m 0 min 0 min 0 W/m 9,7 km/h (2 Bft) 95,74 %
03.01.2022 19:30 8,4 C 7,8 C 5,0 C 97 % 1007,2 hPa 0,0 l/m 0 min 0 min 0 W/m 12,9 km/h (3 Bft) 97,87 %
03.01.2022 19:32 8,4 C 7,8 C 5,0 C 97 % 1007,2 hPa 0,0 l/m 0 min 0 min 0 W/m 12,9 km/h (3 Bft) 97,87 %
03.01.2022 19:34 8,4 C 7,8 C 5,0 C 97 % 1007,2 hPa 0,0 l/m 0 min 0 min 0 W/m 16,1 km/h (3 Bft) 97,87 %
03.01.2022 19:36 8,5 C 7,8 C 5,0 C 97 % 1007,1 hPa 0,0 l/m 0 min 0 min 0 W/m 12,9 km/h (3 Bft) 95,65 %
03.01.2022 19:38 8,5 C 7,8 C 5,0 C 97 % 1007,2 hPa 0,0 l/m 0 min 0 min 0 W/m 12,9 km/h (3 Bft) 97,87 %
03.01.2022 19:40 8,5 C 7,8 C 5,0 C 97 % 1007,1 hPa 0,0 l/m 0 min 0 min 0 W/m 9,7 km/h (2 Bft) 97,87 %
03.01.2022 19:42 8,5 C 7,8 C 5,0 C 97 % 1007,0 hPa 0,0 l/m 0 min 0 min 0 W/m 6,4 km/h (2 Bft) 91,49 %
03.01.2022 19:44 8,6 C 7,8 C 5,0 C 97 % 1007,0 hPa 0,0 l/m 0 min 0 min 0 W/m 6,4 km/h (2 Bft) 97,87 %
03.01.2022 19:46 8,6 C 7,8 C 5,0 C 97 % 1007,0 hPa 0,0 l/m 0 min 0 min 0 W/m 9,7 km/h (2 Bft) 100,00 %
03.01.2022 19:48 8,6 C 7,8 C 5,0 C 97 % 1007,0 hPa 0,0 l/m 0 min 0 min 0 W/m 6,4 km/h (2 Bft) 100,00 %
03.01.2022 19:50 8,6 C 7,8 C 5,0 C 97 % 1007,0 hPa 0,0 l/m 0 min 0 min 0 W/m 12,9 km/h (3 Bft) 100,00 %
03.01.2022 19:52 8,6 C 7,8 C 5,0 C 96 % 1006,9 hPa 0,0 l/m 0 min 0 min 0 W/m 9,7 km/h (2 Bft) 100,00 %
03.01.2022 19:54 8,6 C 7,8 C 5,0 C 96 % 1006,9 hPa 0,0 l/m 0 min 0 min 0 W/m 6,4 km/h (2 Bft) 100,00 %
03.01.2022 19:56 8,6 C 7,8 C 5,0 C 96 % 1006,8 hPa 0,0 l/m 0 min 0 min 0 W/m 6,4 km/h (2 Bft) 100,00 %
03.01.2022 19:58 8,6 C 7,8 C 5,0 C 96 % 1006,8 hPa 0,0 l/m 0 min 0 min 0 W/m 12,9 km/h (3 Bft) 97,83 %
03.01.2022 20:00 8,6 C 7,8 C 5,0 C 96 % 1006,8 hPa 0,0 l/m 0 min 0 min 0 W/m 6,4 km/h (2 Bft) 100,00 %
03.01.2022 20:02 8,6 C 7,8 C 5,0 C 96 % 1006,8 hPa 0,0 l/m 0 min 0 min 0 W/m 12,9 km/h (3 Bft) 100,00 %
03.01.2022 20:04 8,6 C 7,8 C 5,0 C 96 % 1006,7 hPa 0,0 l/m 0 min 0 min 0 W/m 6,4 km/h (2 Bft) 100,00 %
03.01.2022 20:06 8,6 C 7,8 C 5,0 C 96 % 1006,7 hPa 0,0 l/m 0 min 0 min 0 W/m 16,1 km/h (3 Bft) 100,00 %
03.01.2022 20:08 8,6 C 7,8 C 5,0 C 96 % 1006,7 hPa 0,0 l/m 0 min 0 min 0 W/m 12,9 km/h (3 Bft) 59,57 %
03.01.2022 20:10 8,6 C 7,8 C 5,0 C 96 % 1006,7 hPa 0,0 l/m 0 min 0 min 0 W/m 6,4 km/h (2 Bft) 97,78 %
03.01.2022 20:12 8,6 C 7,8 C 5,0 C 96 % 1006,7 hPa 0,0 l/m 0 min 0 min 0 W/m 3,2 km/h (1 Bft) 100,00 %
03.01.2022 20:14 8,6 C 7,8 C 5,0 C 96 % 1006,6 hPa 0,0 l/m 0 min 0 min 0 W/m 12,9 km/h (3 Bft) 100,00 %
03.01.2022 20:16 8,6 C 7,8 C 5,0 C 96 % 1006,6 hPa 0,0 l/m 0 min 0 min 0 W/m 6,4 km/h (2 Bft) 100,00 %
03.01.2022 20:18 8,6 C 7,8 C 5,0 C 96 % 1006,6 hPa 0,0 l/m 0 min 0 min 0 W/m 6,4 km/h (2 Bft) 100,00 %
03.01.2022 20:20 8,6 C 7,8 C 5,0 C 96 % 1006,5 hPa 0,0 l/m 0 min 0 min 0 W/m 6,4 km/h (2 Bft) 100,00 %
03.01.2022 20:22 8,6 C 7,8 C 5,0 C 96 % 1006,5 hPa 0,0 l/m 0 min 0 min 0 W/m 3,2 km/h (1 Bft) 100,00 %
03.01.2022 20:24 8,6 C 7,8 C 5,0 C 96 % 1006,4 hPa 0,0 l/m 0 min 0 min 0 W/m 6,4 km/h (2 Bft) 100,00 %
03.01.2022 20:26 8,6 C 7,8 C 5,0 C 96 % 1006,4 hPa 0,0 l/m 0 min 0 min 0 W/m 12,9 km/h (3 Bft) 97,87 %
03.01.2022 20:28 8,6 C 7,8 C 5,6 C 96 % 1006,4 hPa 0,0 l/m 0 min 0 min 0 W/m 6,4 km/h (2 Bft) 100,00 %
03.01.2022 20:30 8,6 C 7,8 C 5,6 C 96 % 1006,4 hPa 0,0 l/m 0 min 0 min 0 W/m 12,9 km/h (3 Bft) 95,74 %
03.01.2022 20:32 8,6 C 7,8 C 5,6 C 96 % 1006,4 hPa 0,0 l/m 0 min 0 min 0 W/m 12,9 km/h (3 Bft) 97,87 %
03.01.2022 20:34 8,6 C 7,8 C 5,6 C 96 % 1006,4 hPa 0,0 l/m 0 min 0 min 0 W/m 9,7 km/h (2 Bft) 100,00 %
03.01.2022 20:36 8,6 C 7,8 C 5,6 C 96 % 1006,3 hPa 0,0 l/m 0 min 0 min 0 W/m 12,9 km/h (3 Bft) 100,00 %
03.01.2022 20:38 8,6 C 7,8 C 5,6 C 96 % 1006,3 hPa 0,0 l/m 0 min 0 min 0 W/m 9,7 km/h (2 Bft) 97,87 %
03.01.2022 20:40 8,6 C 7,8 C 5,6 C 96 % 1006,3 hPa 0,0 l/m 0 min 0 min 0 W/m 3,2 km/h (1 Bft) 95,74 %
03.01.2022 20:42 8,6 C 7,8 C 5,6 C 96 % 1006,4 hPa 0,0 l/m 0 min 0 min 0 W/m 9,7 km/h (2 Bft) 97,87 %
03.01.2022 20:44 8,6 C 7,8 C 5,6 C 96 % 1006,4 hPa 0,0 l/m 0 min 0 min 0 W/m 16,1 km/h (3 Bft) 97,87 %
03.01.2022 20:46 8,6 C 7,8 C 5,6 C 96 % 1006,4 hPa 0,0 l/m 0 min 0 min 0 W/m 12,9 km/h (3 Bft) 95,65 %
03.01.2022 20:48 8,6 C 7,8 C 5,6 C 96 % 1006,4 hPa 0,0 l/m 0 min 0 min 0 W/m 12,9 km/h (3 Bft) 95,74 %
03.01.2022 20:50 8,7 C 7,8 C 5,6 C 97 % 1006,4 hPa 0,0 l/m 0 min 0 min 0 W/m 12,9 km/h (3 Bft) 93,62 %
03.01.2022 20:52 8,7 C 7,8 C 5,6 C 97 % 1006,3 hPa 0,0 l/m 0 min 0 min 0 W/m 16,1 km/h (3 Bft) 93,62 %
03.01.2022 20:54 8,7 C 7,8 C 5,6 C 96 % 1006,2 hPa 0,0 l/m 0 min 0 min 0 W/m 6,4 km/h (2 Bft) 95,74 %
03.01.2022 20:56 8,7 C 7,8 C 5,6 C 96 % 1006,2 hPa 0,0 l/m 0 min 0 min 0 W/m 12,9 km/h (3 Bft) 93,62 %
03.01.2022 20:58 8,7 C 7,8 C 5,6 C 96 % 1006,1 hPa 0,0 l/m 0 min 0 min 0 W/m 12,9 km/h (3 Bft) 93,48 %
03.01.2022 21:00 8,7 C 7,8 C 5,6 C 96 % 1006,1 hPa 0,0 l/m 0 min 0 min 0 W/m 16,1 km/h (3 Bft) 95,74 %
03.01.2022 21:02 8,7 C 7,8 C 5,6 C 96 % 1006,0 hPa 0,0 l/m 0 min 0 min 0 W/m 12,9 km/h (3 Bft) 93,62 %
03.01.2022 21:04 8,7 C 7,8 C 5,6 C 96 % 1006,1 hPa 0,0 l/m 0 min 0 min 0 W/m 12,9 km/h (3 Bft) 93,62 %
03.01.2022 21:06 8,7 C 7,8 C 5,6 C 96 % 1006,0 hPa 0,0 l/m 0 min 0 min 0 W/m 12,9 km/h (3 Bft) 95,74 %
03.01.2022 21:08 8,7 C 7,8 C 5,6 C 96 % 1006,0 hPa 0,0 l/m 0 min 0 min 0 W/m 19,3 km/h (3 Bft) 95,74 %
03.01.2022 21:10 8,7 C 7,8 C 5,6 C 96 % 1006,0 hPa 0,0 l/m 0 min 0 min 0 W/m 16,1 km/h (3 Bft) 95,65 %
03.01.2022 21:12 8,7 C 7,8 C 5,6 C 96 % 1006,0 hPa 0,0 l/m 0 min 0 min 0 W/m 16,1 km/h (3 Bft) 97,87 %
03.01.2022 21:14 8,7 C 7,8 C 5,6 C 96 % 1006,0 hPa 0,0 l/m 0 min 0 min 0 W/m 19,3 km/h (3 Bft) 95,74 %
03.01.2022 21:16 8,7 C 7,8 C 5,6 C 96 % 1006,0 hPa 0,0 l/m 0 min 0 min 0 W/m 19,3 km/h (3 Bft) 97,87 %
03.01.2022 21:18 8,7 C 7,8 C 5,6 C 96 % 1006,0 hPa 0,0 l/m 0 min 0 min 0 W/m 12,9 km/h (3 Bft) 97,87 %
03.01.2022 21:20 8,7 C 7,8 C 5,6 C 96 % 1005,9 hPa 0,0 l/m 0 min 0 min 0 W/m 12,9 km/h (3 Bft) 95,74 %
03.01.2022 21:22 8,7 C 7,8 C 5,6 C 96 % 1006,0 hPa 0,0 l/m 0 min 0 min 0 W/m 16,1 km/h (3 Bft) 97,83 %
03.01.2022 21:24 8,7 C 7,8 C 5,6 C 96 % 1005,9 hPa 0,0 l/m 0 min 0 min 0 W/m 12,9 km/h (3 Bft) 97,87 %
03.01.2022 21:26 8,8 C 7,8 C 5,6 C 96 % 1005,8 hPa 0,0 l/m 0 min 0 min 0 W/m 12,9 km/h (3 Bft) 97,87 %
03.01.2022 21:28 8,8 C 7,8 C 5,6 C 96 % 1005,8 hPa 0,0 l/m 0 min 0 min 0 W/m 16,1 km/h (3 Bft) 97,87 %
03.01.2022 21:30 8,8 C 7,8 C 5,6 C 96 % 1005,8 hPa 0,0 l/m 0 min 0 min 0 W/m 9,7 km/h (2 Bft) 97,87 %
03.01.2022 21:32 8,8 C 7,8 C 5,6 C 96 % 1005,8 hPa 0,0 l/m 0 min 0 min 0 W/m 6,4 km/h (2 Bft) 95,65 %
03.01.2022 21:34 8,8 C 7,8 C 5,6 C 96 % 1005,8 hPa 0,0 l/m 0 min 0 min 0 W/m 12,9 km/h (3 Bft) 100,00 %
03.01.2022 21:36 8,8 C 7,8 C 5,6 C 96 % 1005,8 hPa 0,0 l/m 0 min 0 min 0 W/m 12,9 km/h (3 Bft) 100,00 %
03.01.2022 21:38 8,8 C 8,3 C 5,6 C 96 % 1005,7 hPa 0,0 l/m 0 min 0 min 0 W/m 6,4 km/h (2 Bft) 52,38 %
03.01.2022 21:40 8,8 C 8,3 C 5,6 C 96 % 1005,7 hPa 0,0 l/m 0 min 0 min 0 W/m 12,9 km/h (3 Bft) 97,87 %
03.01.2022 21:42 8,8 C 8,3 C 5,6 C 96 % 1005,6 hPa 0,0 l/m 0 min 0 min 0 W/m 12,9 km/h (3 Bft) 100,00 %
03.01.2022 21:44 8,8 C 8,3 C 5,6 C 96 % 1005,6 hPa 0,0 l/m 0 min 0 min 0 W/m 6,4 km/h (2 Bft) 100,00 %
03.01.2022 21:46 8,8 C 7,8 C 5,6 C 96 % 1005,5 hPa 0,0 l/m 0 min 0 min 0 W/m 6,4 km/h (2 Bft) 100,00 %
03.01.2022 21:48 8,8 C 7,8 C 5,6 C 96 % 1005,4 hPa 0,0 l/m 0 min 0 min 0 W/m 6,4 km/h (2 Bft) 100,00 %
03.01.2022 21:50 8,8 C 7,8 C 5,6 C 96 % 1005,5 hPa 0,0 l/m 0 min 0 min 0 W/m 3,2 km/h (1 Bft) 100,00 %
03.01.2022 21:52 8,8 C 7,8 C 5,6 C 96 % 1005,5 hPa 0,0 l/m 0 min 0 min 0 W/m 6,4 km/h (2 Bft) 100,00 %
03.01.2022 21:54 8,8 C 7,8 C 5,6 C 96 % 1005,5 hPa 0,0 l/m 0 min 0 min 0 W/m 9,7 km/h (2 Bft) 100,00 %
03.01.2022 21:56 8,8 C 7,8 C 5,6 C 96 % 1005,5 hPa 0,0 l/m 0 min 0 min 0 W/m 16,1 km/h (3 Bft) 100,00 %
03.01.2022 21:58 8,8 C 8,3 C 5,6 C 96 % 1005,5 hPa 0,0 l/m 0 min 0 min 0 W/m 9,7 km/h (2 Bft) 97,87 %
03.01.2022 22:00 8,8 C 8,3 C 5,6 C 96 % 1005,5 hPa 0,0 l/m 0 min 0 min 0 W/m 6,4 km/h (2 Bft) 100,00 %
03.01.2022 22:02 8,8 C 8,3 C 5,6 C 96 % 1005,5 hPa 0,0 l/m 0 min 0 min 0 W/m 3,2 km/h (1 Bft) 94,44 %
03.01.2022 22:04 8,8 C 8,3 C 5,6 C 96 % 1005,5 hPa 0,0 l/m 0 min 0 min 0 W/m 3,2 km/h (1 Bft) 97,87 %
03.01.2022 22:06 8,8 C 8,3 C 5,6 C 96 % 1005,5 hPa 0,0 l/m 0 min 0 min 0 W/m 6,4 km/h (2 Bft) 95,65 %
03.01.2022 22:08 8,8 C 8,3 C 5,6 C 96 % 1005,5 hPa 0,0 l/m 0 min 0 min 0 W/m 3,2 km/h (1 Bft) 97,87 %
03.01.2022 22:10 8,9 C 8,3 C 5,6 C 96 % 1005,5 hPa 0,0 l/m 0 min 0 min 0 W/m 6,4 km/h (2 Bft) 97,87 %
03.01.2022 22:12 8,9 C 8,3 C 5,6 C 96 % 1005,5 hPa 0,0 l/m 0 min 0 min 0 W/m 6,4 km/h (2 Bft) 97,87 %
03.01.2022 22:14 8,9 C 8,3 C 5,6 C 96 % 1005,4 hPa 0,0 l/m 0 min 0 min 0 W/m 6,4 km/h (2 Bft) 95,74 %
03.01.2022 22:16 8,9 C 8,3 C 5,6 C 96 % 1005,4 hPa 0,0 l/m 0 min 0 min 0 W/m 12,9 km/h (3 Bft) 97,87 %
03.01.2022 22:18 8,9 C 8,3 C 5,6 C 96 % 1005,4 hPa 0,0 l/m 0 min 0 min 0 W/m 3,2 km/h (1 Bft) 95,65 %
03.01.2022 22:20 9,0 C 8,3 C 5,6 C 96 % 1005,3 hPa 0,0 l/m 0 min 0 min 0 W/m 6,4 km/h (2 Bft) 95,74 %
03.01.2022 22:22 9,0 C 8,3 C 5,6 C 96 % 1005,3 hPa 0,0 l/m 0 min 0 min 0 W/m 3,2 km/h (1 Bft) 97,87 %
03.01.2022 22:24 9,1 C 8,3 C 5,6 C 96 % 1005,2 hPa 0,0 l/m 0 min 0 min 0 W/m 6,4 km/h (2 Bft) 93,62 %
03.01.2022 22:26 9,0 C 8,3 C 5,6 C 96 % 1005,2 hPa 0,0 l/m 0 min 0 min 0 W/m 6,4 km/h (2 Bft) 97,87 %
03.01.2022 22:28 9,1 C 8,3 C 5,6 C 96 % 1005,2 hPa 0,0 l/m 0 min 0 min 0 W/m 6,4 km/h (2 Bft) 97,87 %
03.01.2022 22:30 9,1 C 8,3 C 5,6 C 96 % 1005,2 hPa 0,0 l/m 0 min 0 min 0 W/m 12,9 km/h (3 Bft) 93,48 %
03.01.2022 22:32 9,1 C 8,3 C 5,6 C 96 % 1005,1 hPa 0,0 l/m 0 min 0 min 0 W/m 12,9 km/h (3 Bft) 95,74 %
03.01.2022 22:34 9,1 C 8,3 C 5,6 C 96 % 1005,2 hPa 0,0 l/m 0 min 0 min 0 W/m 16,1 km/h (3 Bft) 95,74 %
03.01.2022 22:36 9,1 C 8,3 C 5,6 C 96 % 1005,2 hPa 0,0 l/m 0 min 0 min 0 W/m 9,7 km/h (2 Bft) 93,62 %
03.01.2022 22:38 9,1 C 8,3 C 5,6 C 96 % 1005,2 hPa 0,0 l/m 0 min 0 min 0 W/m 12,9 km/h (3 Bft) 95,74 %
03.01.2022 22:40 9,1 C 8,3 C 5,6 C 96 % 1005,2 hPa 0,0 l/m 0 min 0 min 0 W/m 3,2 km/h (1 Bft) 95,74 %
03.01.2022 22:42 9,1 C 8,3 C 5,6 C 96 % 1005,2 hPa 0,0 l/m 0 min 0 min 0 W/m 9,7 km/h (2 Bft) 95,65 %
03.01.2022 22:44 9,1 C 8,3 C 5,6 C 96 % 1005,2 hPa 0,0 l/m 0 min 0 min 0 W/m 6,4 km/h (2 Bft) 95,74 %
03.01.2022 22:46 9,1 C 8,3 C 5,6 C 96 % 1005,2 hPa 0,0 l/m 0 min 0 min 0 W/m 9,7 km/h (2 Bft) 95,74 %
03.01.2022 22:48 9,1 C 8,3 C 5,6 C 96 % 1005,2 hPa 0,0 l/m 0 min 0 min 0 W/m 16,1 km/h (3 Bft) 95,74 %
03.01.2022 22:50 9,0 C 8,3 C 5,6 C 96 % 1005,1 hPa 0,0 l/m 0 min 0 min 0 W/m 19,3 km/h (3 Bft) 93,62 %
03.01.2022 22:52 9,1 C 8,3 C 5,6 C 96 % 1005,2 hPa 0,0 l/m 0 min 0 min 0 W/m 19,3 km/h (3 Bft) 97,83 %
03.01.2022 22:54 9,0 C 8,3 C 5,6 C 96 % 1005,0 hPa 0,0 l/m 0 min 0 min 0 W/m 22,5 km/h (4 Bft) 97,87 %
03.01.2022 22:56 9,0 C 8,3 C 5,6 C 96 % 1005,1 hPa 0,0 l/m 0 min 0 min 0 W/m 22,5 km/h (4 Bft) 95,74 %
03.01.2022 22:58 9,0 C 8,3 C 5,6 C 96 % 1005,1 hPa 0,0 l/m 0 min 2 min 0 W/m 19,3 km/h (3 Bft) 95,74 %
03.01.2022 23:00 9,0 C 8,3 C 5,6 C 96 % 1005,0 hPa 0,0 l/m 0 min 2 min 0 W/m 19,3 km/h (3 Bft) 97,87 %
03.01.2022 23:02 9,0 C 8,3 C 5,6 C 96 % 1004,9 hPa 0,0 l/m 0 min 0 min 0 W/m 16,1 km/h (3 Bft) 97,92 %
03.01.2022 23:04 9,0 C 8,3 C 5,6 C 95 % 1004,8 hPa 0,0 l/m 0 min 0 min 0 W/m 16,1 km/h (3 Bft) 97,87 %
03.01.2022 23:06 8,9 C 8,3 C 5,6 C 95 % 1004,7 hPa 0,0 l/m 0 min 0 min 0 W/m 12,9 km/h (3 Bft) 95,65 %
03.01.2022 23:08 8,9 C 8,3 C 5,6 C 95 % 1004,8 hPa 0,0 l/m 0 min 2 min 0 W/m 35,4 km/h (5 Bft) 100,00 %
03.01.2022 23:10 8,9 C 8,3 C 5,6 C 95 % 1004,9 hPa 0,0 l/m 0 min 0 min 0 W/m 22,5 km/h (4 Bft) 78,72 %
03.01.2022 23:12 8,9 C 8,3 C 5,6 C 95 % 1004,7 hPa 0,0 l/m 0 min 0 min 0 W/m 19,3 km/h (3 Bft) 77,27 %
03.01.2022 23:14 8,9 C 8,3 C 5,6 C 95 % 1004,7 hPa 0,0 l/m 0 min 0 min 0 W/m 29,0 km/h (5 Bft) 97,87 %
03.01.2022 23:16 8,9 C 8,3 C 5,6 C 95 % 1004,6 hPa 0,0 l/m 0 min 0 min 0 W/m 19,3 km/h (3 Bft) 97,83 %
03.01.2022 23:18 8,8 C 8,3 C 5,6 C 94 % 1004,7 hPa 0,0 l/m 0 min 0 min 0 W/m 25,7 km/h (4 Bft) 100,00 %
03.01.2022 23:20 8,8 C 8,3 C 5,6 C 94 % 1004,6 hPa 0,0 l/m 0 min 0 min 0 W/m 29,0 km/h (5 Bft) 97,87 %
03.01.2022 23:22 8,8 C 8,3 C 5,6 C 94 % 1004,6 hPa 0,0 l/m 0 min 0 min 0 W/m 25,7 km/h (4 Bft) 97,87 %
03.01.2022 23:24 8,8 C 8,3 C 5,6 C 94 % 1004,5 hPa 0,0 l/m 0 min 0 min 0 W/m 19,3 km/h (3 Bft) 97,87 %
03.01.2022 23:26 8,8 C 8,3 C 5,6 C 94 % 1004,5 hPa 0,0 l/m 0 min 0 min 0 W/m 22,5 km/h (4 Bft) 97,87 %
03.01.2022 23:28 8,8 C 8,3 C 5,6 C 94 % 1004,5 hPa 0,0 l/m 0 min 0 min 0 W/m 19,3 km/h (3 Bft) 97,87 %
03.01.2022 23:30 8,8 C 7,8 C 5,6 C 94 % 1004,4 hPa 0,0 l/m 0 min 0 min 0 W/m 16,1 km/h (3 Bft) 95,74 %
03.01.2022 23:32 8,8 C 7,8 C 5,6 C 94 % 1004,4 hPa 0,0 l/m 0 min 0 min 0 W/m 25,7 km/h (4 Bft) 97,83 %
03.01.2022 23:34 8,8 C 7,8 C 5,6 C 94 % 1004,4 hPa 0,0 l/m 0 min 0 min 0 W/m 12,9 km/h (3 Bft) 97,87 %
03.01.2022 23:36 8,8 C 7,8 C 5,6 C 94 % 1004,3 hPa 0,0 l/m 0 min 0 min 0 W/m 22,5 km/h (4 Bft) 95,74 %
03.01.2022 23:38 8,8 C 7,8 C 5,6 C 94 % 1004,4 hPa 0,0 l/m 0 min 0 min 0 W/m 25,7 km/h (4 Bft) 97,87 %
03.01.2022 23:40 8,8 C 7,8 C 5,0 C 94 % 1004,3 hPa 0,0 l/m 0 min 0 min 0 W/m 29,0 km/h (5 Bft) 97,87 %
03.01.2022 23:42 8,7 C 7,8 C 5,0 C 94 % 1004,4 hPa 0,0 l/m 0 min 0 min 0 W/m 29,0 km/h (5 Bft) 97,83 %
03.01.2022 23:44 8,7 C 7,8 C 5,0 C 94 % 1004,4 hPa 0,0 l/m 0 min 0 min 0 W/m 19,3 km/h (3 Bft) 95,74 %
03.01.2022 23:46 8,7 C 7,8 C 5,0 C 94 % 1004,4 hPa 0,0 l/m 0 min 0 min 0 W/m 19,3 km/h (3 Bft) 95,74 %
03.01.2022 23:48 8,7 C 7,8 C 5,0 C 94 % 1004,4 hPa 0,0 l/m 0 min 0 min 0 W/m 19,3 km/h (3 Bft) 97,87 %
03.01.2022 23:50 8,6 C 7,8 C 5,0 C 93 % 1004,4 hPa 0,0 l/m 0 min 0 min 0 W/m 12,9 km/h (3 Bft) 97,87 %
03.01.2022 23:52 8,6 C 7,8 C 5,0 C 94 % 1004,3 hPa 0,0 l/m 0 min 0 min 0 W/m 12,9 km/h (3 Bft) 97,87 %
03.01.2022 23:54 8,6 C 7,8 C 5,0 C 94 % 1004,3 hPa 0,0 l/m 0 min 0 min 0 W/m 19,3 km/h (3 Bft) 97,83 %
03.01.2022 23:56 8,6 C 7,8 C 5,0 C 93 % 1004,2 hPa 0,0 l/m 0 min 0 min 0 W/m 16,1 km/h (3 Bft) 97,87 %
03.01.2022 23:58 8,6 C 7,8 C 5,0 C 93 % 1004,2 hPa 0,0 l/m 0 min 0 min 0 W/m 16,1 km/h (3 Bft) 97,87 %
_ Min-Zeit 18:20 16:00 15:28 12:24 23:56 - - - - 18:16 00:56
Minimum _ 8,2 C 7,2 C 5,0 C 84 % 1004,2 hPa - - - - 3,2 km/h (1 Bft) 52,17 %
_ Max-Zeit 12:22 12:18 12:12 18:44 04:50 15:24 10:22 08:32 12:20 12:50 00:26
Maximum _ 11,6 C 12,2 C 8,3 C 97 % 1013,5 hPa 0,2 l/m 2 min 2 min 271 W/m 45,1 km/h
O-SO (6 Bft)
100,00 %
Durchschnitt _ 9,6 C 8,8 C 6,1 C 91 % 1010,4 hPa #2,4 l/m #56 min. #3:36 h 65 W/m 18,6 km/h (3 Bft) 97,07 %
© 2022 W. Hausmann